GFSFLT1_250_spd_000.txt.gz
Wind_Speed
56 59 58 59 59 64 67 67 69 67 63 64 63 61 60 60 63 62 57 50 51 51 48 50 51 50 49 47 44 45 48 49 49
62 62 63 64 65 69 68 65 63 64 62 60 57 58 58 60 62 60 54 50 49 52 52 50 52 49 47 45 44 46 47 45 46
67 68 69 68 68 67 67 65 60 57 55 54 55 55 58 59 60 56 52 52 51 52 53 52 55 48 47 45 48 48 48 47 45
66 69 67 67 67 65 61 56 52 50 51 52 53 55 56 57 54 53 51 51 54 54 52 54 58 56 53 50 54 55 51 48 46
66 66 69 64 62 59 56 49 47 48 50 51 52 54 55 54 53 52 52 54 55 53 53 54 61 62 59 57 60 56 51 49 49
67 68 67 62 58 54 47 44 46 49 49 52 53 52 52 52 52 53 55 55 57 57 55 58 64 61 61 61 63 59 54 54 54
70 67 63 57 54 46 43 45 47 50 51 52 52 52 50 52 53 55 57 55 56 60 52 57 60 62 64 66 65 63 62 60 58
66 63 59 53 48 43 44 47 48 48 48 49 50 51 51 52 54 58 60 59 58 60 60 61 65 66 68 69 67 63 67 67 61
63 60 54 47 44 43 46 48 48 47 47 47 49 50 51 52 54 57 61 62 61 61 61 62 66 69 71 70 70 70 70 69 69
58 55 45 42 43 44 48 48 46 45 46 44 47 50 51 52 55 58 62 66 68 68 67 64 67 72 73 74 74 74 75 77 76
54 47 42 43 43 44 44 43 42 43 43 44 45 49 50 52 57 59 63 66 71 72 74 72 73 75 77 78 82 82 80 82 81
49 44 42 44 41 43 42 42 41 41 43 44 46 46 47 52 53 59 63 66 71 75 75 79 81 82 84 84 86 88 88 83 82
43 44 43 43 42 42 42 42 40 41 43 44 46 46 47 49 52 55 58 64 70 77 82 83 85 88 90 89 89 87 89 86 84
42 45 44 45 45 45 44 44 44 46 47 48 48 48 49 51 53 56 57 61 63 68 74 79 83 84 87 88 87 86 88 88 88
43 44 43 46 49 49 49 49 48 50 52 54 55 55 55 56 57 59 61 63 65 69 72 76 79 82 84 86 88 90 91 91 92
42 44 46 48 48 49 50 51 51 51 53 56 58 60 60 63 64 66 68 69 72 74 76 79 82 85 87 89 91 92 94 95 97
39 42 45 44 45 46 47 50 51 52 53 56 60 63 65 65 66 70 73 74 78 82 85 88 90 93 95 98 101 102 103 104 106
37 40 41 43 44 46 48 51 55 57 56 57 59 62 66 68 74 76 78 79 83 86 90 93 96 99 101 103 106 109 110 112 112
42 44 45 46 48 50 52 55 58 62 64 65 65 66 66 67 67 78 84 86 88 91 94 97 102 105 107 109 112 115 116 118 119
46 47 48 51 53 56 59 61 63 66 69 69 72 74 75 74 71 70 79 86 89 92 96 101 103 105 108 110 112 115 116 117 119

GFSFLT1_250_spd_003.txt.gz
Wind_Speed
49 54 56 62 63 66 67 69 69 72 72 70 70 69 69 65 66 65 65 64 63 64 62 59 53 51 52 54 51 51 51 50 47
52 55 59 63 65 66 69 67 67 68 68 67 67 64 63 63 62 62 60 61 60 63 60 54 50 51 52 56 54 52 45 46 45
55 59 64 68 67 70 65 66 69 68 66 64 60 57 55 54 55 56 58 59 59 59 56 53 53 53 52 58 55 54 54 50 51
63 66 69 71 68 70 71 70 69 66 62 59 55 52 51 52 52 54 56 58 59 59 55 53 56 56 56 57 54 56 57 60 61
68 71 74 77 74 71 73 70 65 59 58 52 50 46 47 49 51 55 56 57 56 55 55 54 55 55 57 58 56 58 58 62 62
71 75 76 76 74 71 72 68 62 57 51 48 47 49 50 52 53 54 55 56 54 54 55 56 56 56 57 54 56 59 60 61 59
71 71 71 69 68 72 71 63 55 51 47 47 49 50 52 52 52 52 53 53 53 53 56 59 60 58 60 61 58 58 62 64 65
70 71 69 68 72 72 64 53 48 46 46 48 50 49 49 49 50 50 51 52 52 54 56 61 63 64 62 63 67 61 64 67 68
71 70 70 71 72 61 56 46 43 46 47 46 44 43 45 46 48 48 50 52 54 55 57 63 68 70 69 68 70 68 67 67 71
72 69 70 68 63 55 45 42 43 44 46 43 43 43 44 45 46 47 48 51 54 57 59 61 67 71 74 72 72 72 71 71 74
71 67 64 64 58 48 43 41 40 43 43 43 43 44 45 46 47 48 48 49 52 54 59 64 66 70 74 78 79 78 76 74 75
63 63 62 57 47 42 43 45 46 48 48 48 45 46 48 49 50 51 52 53 53 54 57 60 65 70 74 77 83 86 88 88 88
58 59 53 46 42 42 44 46 47 50 54 54 54 55 55 57 57 57 57 57 58 59 61 61 62 65 68 72 78 83 89 91 91
55 51 43 42 43 43 45 46 48 50 52 53 54 55 57 58 59 60 62 63 65 66 66 67 68 70 73 74 76 77 81 84 89
50 44 43 45 44 44 45 45 47 49 51 53 54 55 57 59 61 62 64 66 68 71 72 74 75 77 79 80 82 83 85 87 90
46 44 42 39 39 41 42 43 44 47 50 53 55 56 59 62 64 67 69 70 72 75 76 78 80 83 85 86 87 89 92 93 97
40 40 39 41 43 44 46 48 48 50 52 54 57 61 62 64 67 71 74 75 77 79 80 83 85 87 89 90 93 95 97 99 103
42 44 45 46 47 48 51 53 54 55 55 58 61 65 70 72 78 79 81 81 82 84 86 88 90 92 94 96 98 101 102 104 106
44 46 47 50 51 52 55 58 61 63 65 68 69 72 73 74 76 84 87 86 86 89 92 94 97 99 100 100 102 104 106 108 110
46 49 51 52 53 55 57 61 65 69 72 74 77 81 83 83 83 80 84 88 89 90 92 94 98 101 103 105 108 111 112 113 115

GFSFLT1_250_spd_006.txt.gz
Wind_Speed
52 51 52 49 51 53 52 60 64 65 71 74 70 69 70 69 65 65 62 61 61 63 63 63 63 61 62 60 59 55 52 51 48
53 49 49 52 54 56 63 68 71 75 76 73 70 72 70 62 59 59 57 54 54 54 55 59 60 60 60 60 58 52 50 51 51
57 48 50 55 58 64 69 73 76 76 72 69 73 71 63 58 56 53 50 50 49 51 52 53 55 57 59 59 56 52 53 49 53
56 51 53 57 60 66 71 75 73 68 67 72 74 63 58 53 49 46 45 46 47 49 50 53 56 57 56 57 54 56 56 53 54
52 55 55 60 64 68 70 72 69 67 71 73 66 56 50 47 44 44 47 48 49 50 51 54 54 55 56 54 54 56 57 55 55
57 57 62 68 72 71 72 71 68 68 70 67 55 49 44 44 46 48 47 47 48 48 49 50 52 53 52 53 55 56 56 54 51
63 65 69 71 72 73 70 73 72 69 66 58 46 45 44 45 44 43 42 44 45 46 46 48 49 51 52 53 55 58 59 58 59
68 67 70 70 71 72 72 73 69 66 58 46 45 42 44 44 45 43 43 42 43 44 45 46 47 50 51 54 56 60 61 62 62
67 70 69 71 71 72 69 68 66 61 48 44 39 39 41 41 42 43 44 46 46 45 45 46 47 49 52 54 57 61 68 68 69
71 70 71 72 71 67 72 66 63 48 42 41 43 43 45 46 46 46 45 45 46 48 51 51 51 50 51 54 56 61 67 72 76
69 69 67 69 66 66 64 62 49 41 39 40 43 45 47 48 49 50 51 53 55 56 56 57 57 57 57 57 56 58 62 68 72
65 68 67 67 63 61 58 52 43 42 42 43 45 47 48 49 50 52 53 53 54 56 58 59 60 62 63 63 63 63 65 65 67
69 69 69 65 58 55 55 46 45 43 43 44 44 45 46 46 48 51 52 55 56 58 60 61 62 64 65 67 69 70 72 72 72
71 68 65 57 54 50 48 46 43 41 43 44 45 47 48 50 52 54 55 57 59 61 63 66 68 70 72 73 74 75 77 78 77
68 58 54 51 51 44 43 41 40 44 46 48 47 50 53 53 55 58 61 62 65 68 70 71 73 76 78 80 80 81 82 83 83
57 53 50 49 45 42 42 42 44 47 49 51 51 53 56 60 64 67 70 71 74 78 80 82 84 85 85 85 86 88 89 90 90
51 50 47 44 41 43 45 46 49 51 53 55 57 59 61 63 67 72 76 78 82 85 88 90 91 93 93 93 92 93 94 95 96
47 44 41 41 43 44 48 49 52 53 55 57 57 60 64 69 79 84 86 86 90 95 98 99 100 100 98 97 96 96 97 99 101
41 40 41 43 46 49 52 53 56 58 61 63 65 67 69 72 76 88 96 99 103 106 109 105 102 98 95 93 93 95 97 99 100
41 41 44 47 50 53 55 58 61 63 66 69 72 75 77 81 80 82 92 101 107 109 102 96 94 95 96 97 97 97 99 102 104

GFSFLT1_250_spd_009.txt.gz
Wind_Speed
48 50 47 52 54 57 52 51 52 55 56 61 64 68 68 68 64 68 68 64 58 54 55 54 53 54 56 56 59 61 57 58 55
50 53 51 54 56 57 55 49 55 55 59 66 66 66 68 64 67 68 64 57 53 50 46 47 47 48 48 49 52 54 55 57 54
53 54 56 58 60 61 58 53 53 59 67 71 69 66 71 68 67 62 53 49 44 43 40 41 43 43 45 47 49 50 51 54 54
57 58 61 58 54 47 53 55 59 65 69 68 70 69 70 68 63 50 44 42 40 42 43 44 44 45 47 48 49 52 53 54 54
63 60 54 51 54 54 61 65 66 68 70 70 66 65 68 64 55 45 43 42 43 43 40 41 42 43 46 48 50 50 52 52 53
67 65 62 61 62 65 66 65 67 69 71 70 69 69 65 57 48 44 42 41 40 42 41 41 40 41 44 45 47 49 49 50 53
60 61 65 66 66 64 66 67 71 69 68 66 66 66 64 50 42 39 38 38 38 40 41 41 41 40 41 42 45 45 47 48 51
64 62 61 62 64 65 67 69 69 64 67 65 63 64 57 44 39 39 38 37 37 38 38 38 39 39 41 42 44 45 46 48 48
67 67 67 68 67 67 68 67 66 65 67 64 61 62 47 43 41 40 40 39 39 40 41 42 43 45 46 47 48 48 49 49 49
67 67 68 68 69 69 68 65 66 66 65 60 59 51 41 39 38 40 40 41 41 41 42 44 44 46 47 48 50 51 52 53 53
68 67 68 70 69 67 67 66 67 69 60 57 52 44 41 40 40 40 41 41 42 43 44 45 47 48 50 52 53 55 57 57 58
65 65 66 67 65 64 64 66 67 65 58 54 49 43 42 40 42 42 43 44 45 46 47 48 49 51 52 54 56 59 62 64 65
64 63 62 62 62 64 67 67 64 58 55 51 46 41 40 42 46 46 46 48 49 51 52 54 56 59 61 62 63 64 68 69 69
62 64 61 62 64 68 67 66 59 55 53 48 44 44 44 48 49 50 51 52 54 56 57 60 63 66 69 71 73 74 77 79 80
60 64 66 67 69 67 64 58 54 51 47 46 46 47 48 53 55 56 57 57 59 61 62 65 69 72 75 78 80 82 86 88 90
56 58 59 62 60 58 56 52 51 49 47 49 48 51 53 57 59 60 62 64 67 69 72 75 78 82 84 88 91 93 97 98 97
54 55 55 54 53 54 52 50 48 47 48 51 53 56 56 60 64 67 69 71 75 78 80 84 87 90 93 96 99 101 103 98 94
50 50 50 50 52 50 49 48 47 49 52 55 57 59 63 65 71 74 75 78 83 85 87 91 94 97 99 103 106 108 101 95 93
49 47 50 49 48 48 47 47 49 53 55 59 61 65 67 69 71 80 85 87 90 94 97 100 104 108 110 113 115 104 99 99 98
46 46 47 47 48 47 49 50 53 55 60 63 68 71 73 74 74 77 86 90 95 99 103 107 112 115 118 121 112 109 107 103 100

GFSFLT1_250_spd_012.txt.gz
Wind_Speed
51 49 47 47 48 49 53 54 53 55 56 59 54 51 57 62 66 69 71 67 69 70 66 55 52 47 46 46 47 48 47 48 51
55 54 54 53 53 53 55 55 57 61 56 47 51 60 62 65 69 69 68 69 66 65 55 46 43 40 37 39 40 41 42 44 45
59 59 58 58 58 58 59 58 59 54 49 52 59 63 66 69 71 70 67 68 63 56 46 42 40 41 42 42 41 42 43 44 45
64 64 63 62 62 62 64 59 57 55 60 61 62 65 67 69 67 63 65 62 60 48 44 44 44 45 43 42 41 41 43 45 45
65 64 67 66 66 68 68 66 68 64 66 68 64 66 67 64 64 64 66 63 56 42 40 39 40 40 39 39 40 40 41 42 44
69 70 68 67 67 67 64 61 64 63 61 61 64 67 65 63 68 65 63 58 46 39 38 35 33 33 33 35 35 35 36 37 39
71 65 63 64 66 65 62 62 64 62 66 67 69 67 64 64 67 63 62 53 44 44 42 38 36 34 34 34 33 33 35 35 36
65 65 64 65 66 67 69 67 66 66 67 69 67 66 64 63 63 59 54 47 46 46 43 42 39 39 37 38 38 38 38 37 38
69 71 73 73 71 70 68 66 65 66 67 67 68 65 64 64 60 56 53 47 43 40 40 39 38 37 37 38 38 38 38 39 42
79 78 76 76 75 73 70 70 69 66 67 68 67 64 64 63 57 53 49 45 40 38 38 39 39 40 40 41 43 44 44 45 45
78 77 75 73 73 73 71 71 69 66 64 64 64 66 66 61 55 52 47 43 39 41 42 41 42 42 43 44 46 48 49 51 52
72 72 73 71 71 71 72 69 67 64 62 63 64 68 67 60 54 50 44 44 44 45 46 47 48 49 49 50 52 54 55 56 58
70 70 68 69 70 71 70 68 66 63 63 66 66 67 63 58 53 48 48 48 49 50 53 53 54 55 56 56 58 59 61 64 64
54 54 56 58 61 63 64 65 66 66 67 66 66 61 58 55 50 51 52 52 53 55 58 59 59 60 62 64 65 68 70 72 75
51 52 52 52 53 58 61 64 65 66 65 64 61 58 56 53 52 54 55 55 58 59 60 63 66 68 70 72 75 78 79 82 84
50 50 52 53 54 57 59 61 61 61 61 59 58 56 54 53 55 56 60 61 62 64 66 68 70 72 74 76 80 84 87 90 92
49 52 52 50 51 53 55 55 57 58 59 59 56 55 54 55 58 61 63 66 68 70 72 74 75 77 80 84 87 90 92 95 97
52 53 52 52 53 52 54 55 58 58 58 57 56 55 55 58 62 65 68 69 73 76 78 80 82 84 85 88 92 95 97 99 102
54 53 53 53 53 54 55 56 56 54 54 55 56 56 59 62 66 72 74 77 80 83 84 87 90 92 93 96 97 100 101 104 107
57 56 55 54 53 52 54 52 52 52 53 56 58 61 64 66 69 74 81 82 86 89 93 98 101 102 104 107 108 109 111 113 116

GFSFLT1_250_spd_015.txt.gz
Wind_Speed
56 55 54 53 52 51 52 51 51 53 54 56 58 56 61 59 48 54 59 63 67 64 65 65 64 63 56 49 45 39 39 39 39
61 60 58 57 57 56 57 58 56 56 58 59 60 60 56 55 58 61 66 66 65 63 65 65 65 60 49 45 42 39 42 43 40
65 64 63 62 61 61 59 61 62 62 63 63 63 64 61 63 66 65 64 63 66 65 64 65 67 56 44 43 42 44 44 44 43
68 67 66 66 65 66 66 66 63 66 65 66 64 60 63 64 61 59 66 67 66 64 64 66 63 48 44 43 40 37 36 37 37
70 70 70 69 69 69 69 68 70 68 65 67 65 63 61 60 62 66 69 68 64 65 63 61 56 43 43 41 36 33 32 31 31
78 75 74 74 73 72 71 71 70 66 67 66 64 64 66 65 66 66 68 65 65 62 60 57 48 45 46 42 40 37 35 32 30
69 80 81 76 73 75 70 69 65 63 64 64 66 67 65 64 63 64 66 65 62 60 57 53 47 47 48 45 41 38 36 33 32
67 69 69 70 73 69 68 67 64 69 71 72 71 68 67 65 66 67 64 61 61 58 56 50 46 46 43 38 35 34 34 33 33
75 71 67 65 66 67 67 69 72 76 77 75 74 74 71 68 66 66 62 61 59 58 56 50 47 45 40 38 37 36 36 37 37
87 84 82 80 80 81 82 82 81 82 82 79 73 72 73 68 68 63 62 62 62 61 54 50 47 43 43 43 43 43 41 42 42
81 87 85 84 85 83 80 80 78 74 75 76 75 73 70 67 65 63 64 66 64 61 53 50 47 46 46 46 48 48 47 48 48
73 75 75 78 79 81 78 76 76 74 73 72 70 69 67 64 64 67 68 66 64 56 52 52 51 50 50 52 52 52 52 53 53
64 66 69 74 74 74 72 74 73 70 68 69 70 67 64 64 66 67 64 66 61 55 53 54 54 54 54 56 57 56 56 59 61
60 60 58 57 56 55 56 55 55 56 59 62 62 62 63 64 66 65 63 61 56 56 56 57 57 58 60 60 60 61 64 65 67
61 58 56 56 56 55 54 55 56 57 60 59 59 60 61 63 63 62 60 57 57 57 59 61 61 62 64 65 65 68 70 72 73
63 59 58 56 55 56 55 53 54 54 54 54 55 56 58 60 59 58 57 58 58 60 63 63 65 67 69 69 71 73 75 78 80
64 63 60 58 57 55 54 54 54 54 54 54 55 57 59 59 58 57 56 59 62 63 65 67 69 71 72 75 77 80 82 83 85
66 64 60 60 59 57 56 55 55 56 56 57 57 57 56 54 54 55 57 60 64 66 68 71 74 75 77 80 83 85 88 90 92
66 65 63 61 61 59 59 57 56 57 57 59 58 56 54 53 56 58 61 64 67 68 72 76 79 81 83 86 88 91 94 95 97
67 66 65 63 62 62 61 60 60 59 59 59 60 60 58 58 59 62 66 67 71 74 77 82 87 91 92 94 96 97 98 100 102

GFSFLT1_250_spd_018.txt.gz
Wind_Speed
60 58 58 60 60 58 58 57 55 54 54 55 55 54 55 56 58 61 60 60 58 60 62 63 60 68 65 67 65 59 55 46 43
63 63 62 63 63 63 62 61 60 59 59 59 59 59 59 60 61 62 62 58 58 60 56 61 67 66 64 63 63 56 48 45 41
69 69 66 66 67 66 66 66 65 64 63 64 64 62 62 65 62 60 61 60 60 61 64 64 62 62 63 62 59 51 42 43 43
74 74 72 70 71 71 71 71 70 69 68 68 68 66 67 65 63 67 64 63 62 64 62 62 60 61 62 61 55 44 41 40 37
77 78 77 74 74 74 74 74 74 73 72 70 72 70 69 65 67 58 58 62 61 60 60 61 63 59 59 57 53 43 44 39 40
81 76 75 73 74 76 78 77 77 77 77 76 75 71 67 64 62 63 65 64 63 64 64 63 61 58 56 56 52 43 45 43 42
86 85 83 76 70 66 63 68 75 78 83 75 77 69 64 62 68 70 71 73 70 65 66 65 61 56 57 55 51 45 45 43 39
86 88 86 85 86 80 74 73 68 74 74 69 67 66 63 66 75 77 76 75 72 66 66 65 58 56 58 55 51 47 45 39 37
78 78 82 86 85 85 84 81 70 70 67 68 69 76 77 75 79 81 77 73 69 69 65 62 60 59 59 55 53 48 44 42 41
70 70 71 73 77 80 82 81 87 86 84 80 80 81 81 82 80 76 73 73 69 64 63 62 62 64 60 53 54 50 47 45 44
68 67 65 66 69 71 75 77 80 84 84 85 88 88 84 81 76 74 70 67 67 66 64 63 64 61 55 52 54 52 51 50 48
70 65 65 65 65 66 68 70 70 71 72 73 75 75 76 75 73 69 67 64 63 62 63 64 62 58 53 54 55 55 53 53 54
73 68 65 65 64 63 62 62 62 62 63 65 67 67 61 58 56 56 60 60 60 61 61 61 59 56 55 56 57 57 56 58 59
73 71 68 67 65 62 61 60 59 58 56 56 55 55 56 57 59 59 57 58 57 59 59 60 58 56 57 58 59 60 62 62 64
72 72 71 70 68 66 63 61 59 57 57 57 57 55 55 56 56 57 57 57 55 56 57 57 57 57 58 60 62 64 67 67 68
69 71 71 70 70 69 65 64 63 59 57 55 56 56 56 57 56 56 56 56 57 55 57 56 56 57 60 63 65 68 69 71 73
68 69 69 71 71 70 68 66 64 63 60 58 55 54 58 57 57 57 57 55 56 56 55 55 56 59 62 65 67 69 72 75 77
67 67 67 68 68 69 68 66 67 66 63 62 60 58 57 59 62 60 58 57 58 57 57 60 62 63 66 68 70 73 76 79 81
65 67 65 66 68 69 69 68 68 68 66 65 62 62 62 62 65 63 62 61 62 61 63 66 68 69 71 73 77 79 83 86 89
63 65 66 66 67 69 70 70 69 69 67 66 65 66 65 65 64 66 66 66 67 68 70 72 75 77 79 81 82 84 86 89 92

GFSFLT1_250_spd_021.txt.gz
Wind_Speed
59 58 59 59 59 58 59 59 60 61 59 59 59 58 57 57 57 57 58 60 58 61 59 54 59 58 58 60 62 59 59 59 59
65 66 65 63 65 63 63 62 63 64 64 65 65 63 63 61 62 61 62 61 63 64 59 62 58 58 60 62 57 56 58 60 57
71 70 70 70 69 68 68 68 67 67 68 69 69 69 69 67 68 66 63 66 68 64 64 59 56 59 55 58 57 58 58 57 55
75 75 75 75 74 73 74 74 73 72 71 72 73 73 74 74 73 71 70 71 68 66 63 57 59 63 62 62 60 59 59 54 53
81 80 79 79 78 78 77 76 75 76 75 75 74 74 76 79 76 75 76 74 70 66 64 66 67 69 67 70 63 59 57 53 51
84 84 83 83 82 82 82 81 81 79 76 76 73 76 75 78 78 77 80 72 69 66 65 68 71 75 75 67 64 59 57 54 51
87 89 88 87 86 86 87 85 85 85 81 73 68 64 63 69 74 70 73 71 66 68 70 74 76 71 67 63 64 59 57 54 53
83 82 83 84 87 89 90 89 88 89 86 85 86 87 82 80 75 69 63 65 69 76 80 81 81 74 69 67 62 58 57 57 55
76 79 78 77 76 76 78 78 80 83 83 86 88 87 84 84 81 78 82 79 85 86 84 83 80 72 68 62 60 59 58 57 51
70 70 72 71 69 70 70 71 70 72 72 75 77 80 78 80 82 84 86 85 81 81 79 76 71 69 66 65 62 58 59 55 49
68 70 71 68 68 68 68 69 67 67 65 65 66 67 68 71 72 72 72 74 74 76 76 70 70 63 61 61 59 60 57 51 50
65 69 71 70 70 72 72 71 68 66 65 63 62 61 61 61 63 65 66 65 63 59 56 58 57 58 57 58 59 56 53 53 53
63 66 68 69 69 73 74 74 71 70 67 63 62 62 60 59 58 58 58 56 58 58 60 61 59 57 55 54 55 56 56 57 57
63 63 65 65 67 70 75 75 74 74 70 67 63 62 60 59 59 60 60 58 57 58 59 58 58 57 56 55 56 56 57 58 59
65 64 63 61 64 68 69 73 76 76 74 71 69 66 64 61 61 59 59 58 60 60 60 59 58 59 58 59 59 59 59 59 59
62 64 65 63 63 64 68 70 73 74 75 75 73 71 68 66 65 62 60 59 60 59 60 61 59 58 59 60 60 60 59 59 60
60 64 65 65 64 63 64 67 71 72 73 74 74 73 71 68 69 68 65 63 63 63 63 62 62 60 60 60 61 61 61 63 65
56 60 63 64 63 64 64 65 66 69 71 73 74 74 72 71 71 71 69 68 67 68 68 66 65 65 64 64 65 65 67 70 71
53 57 60 64 64 62 62 64 66 67 69 71 72 72 72 72 71 73 73 72 71 70 71 69 69 68 67 69 68 70 72 75 77
54 57 58 60 62 61 61 63 65 67 68 70 71 74 75 75 74 76 75 75 75 75 75 74 74 72 72 71 73 75 77 77 79

GFSFLT1_250_spd_024.txt.gz
Wind_Speed
54 56 57 59 61 61 62 62 61 62 62 62 61 61 59 64 61 62 62 62 61 60 60 60 58 62 63 60 62 59 53 54 58
60 62 63 64 64 66 67 68 67 67 67 67 66 65 66 66 65 66 67 68 69 67 68 66 69 68 67 64 62 57 56 58 63
64 65 68 70 71 73 73 72 73 74 73 72 71 72 72 71 71 70 71 72 72 73 73 72 74 73 70 67 63 65 64 62 65
70 71 72 73 75 76 77 79 79 78 76 75 74 75 76 75 73 73 72 74 75 74 75 74 75 76 73 66 66 67 67 65 69
73 76 78 79 79 81 81 82 82 82 81 81 78 78 78 79 80 79 75 76 77 74 73 68 70 73 73 71 66 67 69 71 72
77 78 80 81 83 83 85 86 86 85 85 82 84 85 86 85 85 83 78 72 70 67 67 71 73 73 69 68 67 71 74 76 70
79 81 82 84 85 84 84 84 85 86 86 88 88 85 87 85 85 85 84 80 79 84 85 85 78 76 69 69 73 79 77 68 67
87 86 83 84 85 83 81 82 81 82 81 80 81 82 84 84 84 85 84 87 88 88 89 84 83 82 85 84 83 75 72 72 64
85 84 80 79 77 76 75 75 75 76 77 76 76 75 75 73 73 74 75 75 77 80 80 82 81 78 78 82 77 76 74 69 66
81 79 74 73 71 70 70 71 72 72 72 71 70 70 69 68 67 66 65 65 66 67 69 70 69 70 69 68 68 66 59 57 54
71 70 70 70 69 67 68 69 70 71 71 72 70 71 70 69 68 65 63 61 61 62 63 64 64 63 61 58 56 54 52 51 52
67 67 68 68 67 67 68 68 69 70 71 73 73 73 73 72 71 68 65 63 62 62 62 60 59 57 57 57 57 55 55 54 53
66 67 67 66 67 68 68 68 67 69 71 71 72 72 75 75 74 71 68 66 64 63 63 62 62 60 59 60 59 58 56 56 57
62 64 65 66 66 67 68 69 69 67 68 70 72 71 73 75 75 74 72 71 69 67 66 64 62 61 60 61 59 58 57 58 59
54 57 59 62 63 65 65 67 69 68 68 68 69 71 71 72 74 76 75 74 73 72 70 68 66 63 63 62 61 59 58 59 60
56 57 54 55 57 59 64 66 67 68 70 69 68 70 71 72 73 75 74 74 75 75 74 73 71 69 68 66 64 63 61 62 62
55 52 54 55 54 57 60 63 66 67 66 68 70 70 69 71 73 74 75 75 76 77 78 77 75 74 73 72 71 69 69 67 65
62 59 55 56 57 60 61 61 61 61 64 66 68 69 70 71 71 72 73 75 76 78 79 79 77 76 76 77 77 75 74 71 70
60 62 58 58 60 60 62 62 61 59 59 62 65 67 68 69 71 72 74 75 76 78 79 80 81 81 81 81 80 80 79 77 75
68 68 64 64 65 64 65 61 60 58 55 58 63 66 68 70 70 72 74 77 78 79 82 82 84 85 85 86 86 86 85 84 82

GFSFLT1_250_spd_027.txt.gz
Wind_Speed
51 51 52 54 55 56 57 59 61 61 63 64 66 67 67 67 67 67 67 66 63 64 64 67 68 68 68 66 66 65 67 70 68
55 56 58 58 59 60 61 62 64 65 67 68 70 71 73 72 71 71 72 72 70 68 67 67 68 70 72 73 72 72 72 70 69
60 62 63 61 62 63 65 67 69 70 72 74 75 76 76 75 75 75 76 74 74 73 74 71 73 73 74 72 72 72 70 67 66
65 66 66 66 66 67 68 70 73 75 76 77 79 79 80 80 79 79 79 79 79 78 77 78 78 77 73 73 71 70 60 66 69
67 67 68 69 71 72 74 77 77 76 78 80 81 83 82 81 83 83 84 84 82 81 82 80 80 78 78 72 69 71 74 79 75
71 72 73 74 76 77 79 81 80 83 83 83 85 85 85 83 82 83 81 84 84 83 82 82 82 79 79 77 75 80 84 74 70
74 76 78 80 81 80 83 85 84 87 86 86 86 88 85 83 81 79 78 77 77 77 78 78 78 79 80 78 83 82 83 79 77
78 78 78 79 80 84 85 86 86 86 85 84 83 82 79 78 76 74 73 72 70 70 69 68 69 70 69 70 69 69 70 70 64
81 83 85 85 84 83 86 85 84 82 79 78 77 75 73 71 70 69 69 68 68 66 64 63 63 62 61 60 60 61 62 63 63
81 84 84 85 86 86 84 84 79 77 74 74 74 73 73 71 70 68 67 68 68 67 65 64 63 60 59 59 58 59 56 54 53
84 85 82 83 83 83 81 78 75 72 72 73 74 73 73 72 71 69 69 69 69 69 68 66 65 63 61 59 59 58 56 55 53
78 80 79 78 74 75 74 71 72 72 70 70 72 73 73 73 72 72 71 70 69 69 69 69 68 66 63 62 61 60 59 58 57
71 69 70 68 69 69 69 68 68 70 69 70 71 71 72 73 74 72 71 71 70 69 69 70 70 68 67 66 66 63 61 59 59
62 61 60 61 63 63 62 63 65 67 67 68 70 71 72 73 73 73 72 72 71 70 70 69 69 70 70 71 69 68 66 64 63
60 58 57 57 58 58 59 60 59 59 61 63 66 67 70 72 72 72 73 72 71 71 71 70 69 69 71 72 72 72 71 69 69
66 65 62 61 58 55 55 56 59 59 58 58 61 62 64 66 70 71 71 71 72 72 71 70 71 71 71 73 72 73 74 73 72
62 63 63 63 59 59 59 64 61 59 60 62 61 62 62 63 66 69 71 70 70 71 71 71 72 73 72 73 75 76 77 77 76
70 70 71 70 70 69 66 64 64 62 63 67 68 63 62 61 62 64 66 68 70 72 73 73 73 75 75 75 76 77 78 79 79
74 73 71 70 70 67 68 70 70 73 74 74 72 66 63 58 58 61 62 63 65 68 71 73 75 76 77 79 80 81 81 82 84
72 72 75 75 75 73 71 73 74 72 73 76 72 69 64 61 59 60 61 63 64 63 64 68 73 78 81 81 81 83 85 87 88

GFSFLT1_250_spd_030.txt.gz
Wind_Speed
55 56 54 53 54 54 55 55 56 57 57 58 58 60 60 61 65 66 66 68 67 69 69 69 68 68 69 68 68 68 67 68 68
56 56 57 58 57 58 59 59 61 60 61 61 62 63 64 68 70 70 70 72 71 72 73 73 73 73 72 71 72 72 72 72 69
58 58 57 57 57 59 61 62 63 62 64 65 67 69 71 73 72 72 75 75 76 77 77 77 77 76 76 76 76 75 76 74 71
60 59 59 61 62 62 63 64 65 67 68 70 72 73 73 74 75 77 78 78 79 80 80 78 78 77 76 75 77 76 76 76 72
61 61 63 63 63 65 65 67 68 71 73 74 74 74 75 76 76 79 78 80 81 81 79 77 77 76 73 73 73 71 71 72 69
62 63 64 65 66 68 68 69 72 73 74 75 75 77 77 80 79 81 82 81 80 79 73 72 72 70 68 67 66 65 65 63 64
67 68 69 69 70 71 71 74 75 76 77 78 79 80 81 80 82 83 81 79 76 72 70 66 66 65 64 61 61 59 59 58 58
71 72 72 74 74 75 76 76 77 79 81 82 82 85 85 83 81 81 77 75 72 69 66 66 65 63 62 61 58 57 56 55 54
74 74 77 78 78 77 79 82 80 83 83 83 81 84 81 79 77 75 72 71 70 67 66 66 65 65 64 62 61 59 57 55 54
75 76 76 76 76 79 81 82 83 81 82 83 82 77 76 76 73 72 71 70 70 69 69 68 67 67 66 64 63 61 59 58 56
74 76 76 78 79 79 78 81 80 77 76 71 72 72 71 71 72 71 70 69 70 68 67 67 68 67 67 66 64 63 61 60 59
74 73 74 74 75 75 72 71 68 65 63 64 65 65 66 66 66 67 67 67 69 69 68 67 67 66 66 66 65 63 63 62 61
71 69 67 66 65 66 63 62 62 63 60 59 60 60 61 61 61 61 63 64 66 67 67 67 67 65 65 64 64 64 64 63 63
65 65 64 63 63 64 63 60 60 63 63 61 59 56 55 56 57 58 58 60 61 62 62 65 66 66 66 65 64 63 64 65 65
69 70 70 65 65 67 67 63 59 58 58 55 57 59 60 58 58 59 61 63 64 63 62 63 64 66 66 67 66 65 65 65 66
72 72 72 70 63 63 67 66 63 63 65 64 65 64 61 63 65 68 69 66 63 62 61 61 62 63 65 66 66 66 66 66 67
71 68 67 64 65 69 68 69 72 70 67 65 64 65 66 66 67 68 67 66 63 61 60 60 61 62 62 63 64 65 66 67 67
70 70 70 69 70 72 72 73 73 70 68 70 68 70 70 71 70 69 70 66 65 64 62 61 61 62 61 61 62 63 65 67 69
72 73 74 76 74 73 73 75 76 73 73 74 74 72 73 73 71 70 68 67 68 67 65 64 62 60 61 60 60 62 63 65 68
81 77 71 73 75 78 75 75 76 77 77 76 76 74 73 71 71 69 68 69 69 70 69 67 65 63 62 61 61 63 65 67 69

GFSFLT1_250_spd_033.txt.gz
Wind_Speed
52 53 54 53 54 56 55 56 56 56 55 55 56 57 56 56 56 57 60 61 63 66 65 66 67 68 69 71 71 72 72 71 70
53 53 53 55 56 58 58 58 58 56 56 57 58 59 58 59 61 63 64 65 66 66 68 69 71 72 71 74 73 74 74 73 74
57 58 59 58 59 59 61 61 59 60 61 60 61 61 62 63 66 66 67 67 66 67 69 70 71 72 75 75 74 74 75 71 72
59 59 60 61 61 62 61 60 62 62 63 63 63 64 64 66 66 68 69 70 70 70 72 73 75 75 75 73 73 70 69 68 68
61 61 61 62 62 62 62 60 61 62 62 63 64 66 69 68 70 70 70 71 72 76 76 75 75 73 74 71 67 64 63 62 61
63 62 61 61 61 62 63 65 67 67 67 68 69 69 71 74 74 75 77 74 75 76 77 75 73 71 69 66 64 63 61 59 58
63 62 62 62 63 65 67 69 70 69 71 71 72 72 74 76 77 78 78 79 77 78 74 73 71 67 65 62 61 61 61 59 57
65 65 66 66 68 70 71 69 71 73 72 72 74 74 77 77 78 79 77 76 74 73 70 68 66 64 62 61 61 60 61 60 60
67 68 68 67 68 68 69 70 72 74 74 75 76 76 77 74 74 72 70 68 66 66 66 65 67 64 63 62 61 60 60 60 59
65 67 67 66 67 70 71 72 73 74 76 76 74 74 72 67 63 62 59 60 60 62 61 60 61 61 61 61 61 61 60 60 58
68 68 68 68 69 72 71 73 74 75 73 71 70 70 64 60 57 54 55 55 55 55 54 54 56 56 58 58 59 60 61 61 58
69 70 70 70 71 72 72 71 70 70 69 66 65 65 64 64 58 56 53 50 50 48 48 50 51 50 52 53 54 56 58 59 59
70 70 68 70 71 72 71 66 66 69 66 65 62 60 61 59 55 54 53 56 54 52 54 56 58 57 54 53 54 55 56 56 57
68 67 67 68 69 66 65 67 67 67 64 59 60 63 61 62 63 59 59 57 56 57 58 58 58 55 53 53 53 54 55 56 58
70 70 70 69 71 68 68 68 68 65 65 62 63 63 63 65 66 64 62 61 61 62 62 62 60 55 53 52 52 54 55 56 57
70 70 70 71 70 69 69 69 70 65 63 64 64 68 68 69 67 65 66 67 67 64 63 61 61 58 58 55 53 53 54 55 57
75 73 72 72 74 76 73 72 71 70 70 70 71 70 72 70 71 69 70 71 69 65 61 62 61 59 60 60 58 58 56 55 56
82 79 78 76 77 76 75 74 74 74 74 72 73 73 76 71 72 75 74 73 69 64 62 62 61 61 62 63 64 63 62 60 58
81 74 75 77 78 78 77 74 76 77 77 76 74 76 75 75 75 75 76 74 70 68 64 63 61 61 63 65 66 68 68 63 61
85 83 81 81 75 75 74 74 76 79 79 81 80 77 77 78 78 78 78 75 73 69 67 66 65 63 65 67 67 70 69 66 62

GFSFLT1_250_spd_039.txt.gz
Wind_Speed
46 47 49 49 50 51 53 55 56 57 57 58 59 59 59 59 60 60 60 59 61 61 62 62 63 64 66 67 67 69 69 69 71
48 50 52 54 55 55 57 56 57 58 58 59 60 62 61 61 62 62 61 61 61 62 66 69 70 69 69 70 71 71 72 72 72
54 55 57 58 58 59 61 62 60 60 62 63 62 61 62 63 62 62 62 64 67 68 69 69 69 69 71 72 73 74 74 75 75
60 61 61 64 65 64 64 65 65 66 66 65 63 63 64 63 63 64 65 68 69 69 70 69 69 70 72 74 75 75 75 75 73
65 65 66 66 65 64 64 64 65 65 64 65 64 66 67 65 65 68 70 68 67 68 69 70 68 70 71 72 68 69 66 64 65
66 66 65 62 62 64 66 67 67 66 65 66 66 68 68 67 65 65 65 66 66 66 65 66 67 68 65 61 58 57 55 55 55
62 60 62 64 66 68 67 66 65 65 65 67 68 68 66 65 64 64 66 65 64 65 64 64 63 59 53 49 52 50 52 50 51
65 67 67 66 65 66 67 67 68 70 70 67 68 66 65 65 65 65 65 65 63 63 63 60 54 52 50 48 48 49 49 49 48
69 69 68 68 68 69 71 71 70 70 70 67 65 66 67 66 66 65 66 64 64 63 61 56 51 50 51 48 49 49 48 50 50
72 72 72 72 73 71 71 69 68 67 65 66 67 67 68 67 66 66 66 64 64 63 61 55 52 55 50 50 51 50 54 53 51
71 72 71 71 71 70 69 69 68 68 66 68 69 70 70 69 67 68 65 65 63 63 61 57 54 54 56 56 57 56 56 54 49
76 77 76 73 73 73 73 72 72 73 71 71 72 72 71 70 68 66 65 66 66 64 62 60 57 57 59 61 61 59 57 54 52
76 76 76 76 76 75 75 74 74 76 75 74 74 73 69 66 65 66 68 67 70 67 67 64 61 60 62 63 63 63 59 55 54
78 77 77 79 78 77 79 78 77 76 76 74 72 70 67 67 67 68 70 71 71 69 70 69 67 65 64 65 65 66 62 57 55
84 83 83 81 81 81 82 79 77 77 77 74 69 68 67 70 72 71 73 74 71 74 73 73 71 69 67 68 69 67 67 63 60
86 87 87 84 82 81 81 83 80 79 78 78 77 77 78 77 74 74 73 75 74 74 75 74 72 72 68 66 68 68 69 64 67
85 84 86 87 88 85 86 86 82 82 81 81 80 79 77 78 77 74 73 73 74 75 73 73 72 69 70 69 65 68 66 69 69
88 88 90 90 89 89 89 87 87 87 86 86 84 82 80 81 78 76 74 75 74 75 75 73 73 73 75 70 67 68 70 71 71
89 91 89 89 90 90 92 91 90 89 88 88 85 83 81 79 76 76 76 76 76 76 76 76 77 79 75 72 73 74 75 73 72
92 91 90 89 92 93 94 93 91 90 88 88 87 85 84 81 80 81 77 77 79 80 78 80 77 78 79 77 75 76 77 76 75

GFSFLT1_250_spd_042.txt.gz
Wind_Speed
42 42 43 45 46 49 51 53 54 56 56 58 59 58 58 59 61 62 59 59 61 63 62 63 63 65 68 69 71 70 71 69 70
45 46 47 49 51 54 55 57 57 58 60 60 59 60 60 61 63 61 61 61 63 63 63 64 66 69 70 68 69 69 70 71 71
47 49 52 55 57 60 61 62 63 64 64 61 61 61 64 65 63 62 63 63 64 64 66 66 63 65 67 67 66 67 68 69 71
55 55 57 60 63 65 65 65 64 63 60 62 65 66 64 63 63 63 63 64 65 62 60 61 62 62 61 64 66 66 66 65 62
61 63 66 68 67 64 64 60 59 61 64 67 69 66 64 64 63 64 64 65 63 62 60 59 59 59 60 63 62 58 56 53 50
65 67 70 67 66 64 61 63 66 67 67 68 66 67 67 68 67 67 65 63 62 62 61 60 58 57 61 59 55 53 50 49 48
73 72 69 68 66 66 67 69 69 68 69 69 69 70 69 64 64 63 62 63 64 64 63 60 56 57 57 57 52 51 45 42 43
76 73 69 67 65 67 70 71 70 70 70 68 67 65 65 62 64 64 64 64 65 64 64 61 58 56 55 53 51 49 47 48 48
71 69 67 68 71 72 71 69 68 69 70 68 68 69 67 67 66 66 67 67 67 66 65 62 56 57 56 54 53 51 50 49 51
69 69 72 72 71 71 72 72 73 73 73 73 73 71 70 68 70 69 69 69 69 66 65 59 58 58 57 56 53 52 53 56 54
70 71 73 72 72 73 74 74 75 74 77 76 72 71 72 69 70 71 71 70 68 63 65 62 60 60 61 59 56 56 56 57 57
71 72 74 74 74 75 77 78 79 77 78 78 78 74 72 70 70 73 72 69 67 63 63 63 65 64 64 61 60 59 58 59 60
73 74 76 80 81 82 82 83 81 80 79 77 78 75 73 73 72 71 71 69 65 62 64 68 67 67 65 65 63 62 60 59 57
80 82 83 85 86 86 85 85 84 81 77 75 78 77 75 76 74 71 71 72 69 69 69 68 69 69 68 67 66 65 64 62 58
84 84 85 86 88 92 91 89 85 81 79 79 79 81 78 77 74 73 72 72 72 73 70 70 70 70 70 69 69 66 66 63 57
87 90 92 93 91 91 92 89 83 84 82 84 81 79 79 77 78 78 77 76 74 73 73 69 71 70 68 70 70 69 67 66 64
90 93 96 95 96 90 88 86 85 83 88 83 81 79 80 82 80 80 79 78 77 74 74 71 71 69 72 72 71 71 71 71 71
94 96 96 97 95 94 87 87 92 89 86 85 85 84 85 84 84 82 81 78 76 74 72 74 73 73 74 71 71 72 72 74 73
103 101 95 91 91 91 91 92 91 90 90 90 89 90 87 87 85 86 85 84 82 81 80 80 78 75 73 72 75 80 76 75 73
108 107 97 91 90 89 94 95 93 94 95 97 97 97 96 97 98 97 96 94 93 89 83 79 77 75 78 78 78 76 76 75 75

GFSFLT1_250_spd_045.txt.gz
Wind_Speed
35 38 38 38 40 41 44 47 51 55 58 60 61 61 61 62 57 59 65 66 65 63 62 60 59 59 61 60 59 61 64 63 64
39 39 39 41 44 47 50 52 55 59 64 63 62 62 60 57 60 65 67 65 63 61 61 62 62 61 60 61 59 60 62 63 66
42 43 45 47 49 53 57 59 63 65 62 60 59 59 59 64 65 66 66 64 63 65 64 62 61 60 59 59 58 59 59 61 61
46 48 50 54 56 58 61 65 65 63 62 61 61 64 66 68 66 67 66 67 63 60 57 59 56 57 59 59 57 57 57 58 56
52 54 56 58 62 64 67 68 68 66 65 62 63 66 69 68 66 65 62 61 60 60 60 58 59 58 59 59 56 55 53 54 49
57 60 62 63 65 68 71 71 68 65 63 65 68 70 70 67 66 64 63 64 64 62 62 60 61 61 60 59 57 52 53 50 49
63 66 67 68 72 74 74 70 68 66 67 68 70 71 70 71 68 66 68 66 64 64 63 63 62 62 62 58 54 52 52 51 49
68 69 71 73 75 74 71 68 67 67 69 72 70 70 71 71 70 69 69 69 67 66 63 63 61 60 59 58 54 52 50 51 49
72 74 75 77 74 72 68 69 70 70 71 72 72 73 75 77 77 73 73 71 69 65 63 61 59 61 59 55 54 53 53 53 48
77 77 75 74 71 69 69 70 71 72 73 75 76 76 78 80 79 75 69 67 66 67 64 65 61 59 59 58 57 58 55 52 50
75 71 71 71 68 72 75 75 76 78 80 78 80 81 81 80 77 72 66 68 69 65 66 63 61 62 58 58 61 62 57 55 53
70 70 73 74 78 76 79 81 81 84 84 84 84 85 82 77 73 74 69 71 70 69 67 65 61 61 61 62 63 62 61 58 56
75 75 78 78 78 79 80 83 85 86 87 88 87 86 83 77 72 71 72 73 71 67 67 66 66 64 64 64 64 65 61 61 59
75 77 78 81 83 85 87 89 89 89 92 93 91 88 81 75 69 71 74 75 70 69 67 67 68 69 67 66 66 68 67 64 63
79 80 79 79 83 88 89 91 94 97 98 94 91 82 77 71 73 75 73 71 71 69 70 68 67 68 70 70 69 68 67 66 65
78 79 80 82 86 90 94 96 98 100 101 98 89 82 80 77 78 77 72 73 74 75 74 73 73 72 71 68 68 69 71 69 69
81 84 88 90 92 96 97 101 103 102 101 96 89 84 82 83 83 82 81 79 78 79 77 79 78 76 74 72 73 73 74 73 72
84 89 93 96 97 98 102 104 104 103 99 94 88 88 84 86 89 89 87 86 84 84 85 85 86 84 83 81 78 75 74 70 71
95 95 96 99 101 104 104 106 103 97 94 94 97 99 97 93 91 92 94 95 94 95 93 92 90 85 78 79 74 72 72 70 69
101 104 105 105 106 109 107 103 94 92 95 98 102 104 108 106 106 110 110 106 100 95 92 89 85 80 77 76 74 72 72 71 76

GFSFLT1_250_spd_048.txt.gz
Wind_Speed
29 31 32 35 35 36 38 40 44 48 52 55 58 60 60 58 57 57 58 59 65 66 65 63 61 59 55 54 57 54 54 56 60
33 34 36 38 39 41 43 45 50 53 55 59 62 63 61 61 60 60 61 65 66 64 61 61 59 58 58 57 59 57 58 57 57
36 39 40 41 43 45 47 50 54 57 59 64 65 65 63 63 61 62 65 65 64 65 64 60 63 62 60 59 59 58 58 58 56
42 43 44 46 48 50 53 56 59 61 64 69 68 67 65 63 62 65 66 63 64 65 65 66 65 65 64 60 58 58 57 56 54
46 46 48 50 52 55 59 62 64 66 70 71 69 67 66 64 65 67 66 68 68 67 69 69 69 65 62 62 58 56 55 52 49
48 50 52 54 57 60 63 65 68 71 72 71 68 66 65 68 70 70 71 71 70 70 71 68 64 61 59 56 55 54 54 51 47
53 54 57 60 63 64 66 69 71 71 71 70 67 67 71 72 73 74 75 75 75 73 72 66 63 60 59 59 57 55 53 50 49
57 60 62 64 67 70 72 71 71 70 69 67 69 73 74 75 76 76 76 77 76 74 72 64 59 60 59 54 55 53 54 51 49
63 65 68 69 72 73 71 71 69 66 67 72 74 74 78 77 79 78 78 78 81 78 69 64 61 62 58 60 56 53 53 53 51
67 69 71 73 74 72 69 68 68 71 73 75 78 79 80 81 80 82 83 82 79 71 65 61 62 62 61 58 56 55 55 54 57
73 73 74 73 70 67 70 72 74 74 77 78 81 83 81 82 81 85 86 84 76 70 63 63 62 63 62 59 59 56 58 57 57
74 74 71 69 70 72 72 74 76 80 80 82 83 82 83 84 89 89 88 83 74 69 65 62 66 66 62 60 58 58 58 59 60
73 71 70 71 73 76 78 76 78 80 81 85 85 87 88 91 90 92 89 81 74 68 64 68 65 63 62 60 60 59 59 60 61
70 72 73 75 76 76 77 79 80 84 87 89 91 93 93 96 95 96 86 79 73 70 68 68 66 65 65 63 63 63 63 63 63
73 73 75 77 78 78 79 81 84 88 92 94 97 97 101 102 99 93 82 75 75 78 74 73 74 72 71 72 70 70 67 68 66
76 77 79 79 79 80 83 85 89 91 96 99 101 105 106 104 100 86 80 81 81 81 82 81 79 78 77 75 74 74 73 71 72
78 79 79 82 83 85 89 92 94 97 103 107 109 108 107 97 90 85 83 85 89 90 91 91 89 87 85 86 84 81 80 77 74
79 79 82 86 90 93 94 97 101 105 110 112 114 109 102 93 92 92 94 94 97 99 99 99 98 95 89 85 83 81 77 74 71
87 88 89 90 92 95 99 102 107 111 112 115 112 110 100 94 94 97 101 103 106 108 107 103 95 90 88 83 83 81 78 76 71
95 95 96 97 97 100 103 108 109 112 112 109 107 96 98 100 103 104 110 114 113 100 95 96 94 93 87 86 86 84 83 79 72

GFSFLT1_250_spd_051.txt.gz
Wind_Speed
24 24 25 26 28 32 33 35 38 40 43 47 51 53 57 61 62 60 58 57 56 59 62 62 64 61 61 62 62 63 60 56 56
27 28 29 30 33 37 38 40 42 45 48 51 55 58 61 63 63 62 59 58 61 63 63 66 64 65 64 65 66 63 58 54 54
30 31 33 35 38 40 41 43 46 49 53 56 58 61 64 63 64 61 59 63 65 68 68 66 66 67 69 69 66 60 55 54 51
32 35 37 39 41 43 45 48 51 54 57 60 63 63 64 64 63 59 66 69 70 71 73 67 70 70 73 69 62 57 54 52 51
37 39 40 43 43 46 49 53 56 59 62 65 66 65 65 64 61 66 71 74 75 72 70 71 71 74 76 67 59 54 52 52 47
40 42 43 46 47 51 54 57 60 64 67 69 67 69 65 65 67 73 76 76 75 72 73 76 76 77 72 65 58 52 52 51 51
45 46 47 50 52 55 58 62 65 68 70 69 69 66 67 69 72 77 76 76 74 76 78 80 78 79 71 60 54 53 55 52 50
48 50 53 54 57 59 62 66 69 70 70 66 67 68 72 73 76 77 77 77 76 79 80 80 83 80 69 59 53 54 53 55 51
52 54 57 59 61 64 67 69 71 71 68 68 70 72 75 76 77 79 79 79 81 82 84 86 83 77 65 59 53 55 56 56 51
57 59 60 62 64 67 70 71 69 69 68 71 73 74 74 76 79 79 82 84 84 86 89 91 84 70 62 56 54 56 59 54 52
62 63 65 67 70 71 72 69 69 71 73 74 75 74 77 78 81 84 87 88 91 94 93 83 74 65 61 57 56 58 57 55 53
65 67 69 71 72 72 71 69 71 74 76 77 78 79 80 83 86 88 90 94 98 96 90 85 72 64 62 62 61 59 58 58 58
69 71 72 72 72 72 69 71 74 77 80 80 81 82 84 87 90 93 97 100 101 100 94 86 71 64 63 64 64 63 64 62 60
72 72 72 72 70 70 72 75 77 80 82 83 86 88 90 91 94 99 102 103 104 99 91 79 74 71 70 70 70 72 72 71 69
71 73 73 70 70 73 76 78 81 84 86 89 91 92 93 95 99 103 104 105 105 97 84 80 77 78 78 78 80 80 79 76 73
75 72 70 69 73 77 80 81 84 87 92 94 95 95 97 101 105 107 108 108 100 85 84 84 86 86 89 89 88 83 76 74 73
71 71 71 73 78 80 83 86 88 91 95 97 99 97 100 106 110 111 111 101 96 89 90 93 94 96 99 94 86 80 79 76 76
71 73 75 79 81 84 87 92 95 96 98 100 104 103 103 107 110 113 106 99 95 97 100 104 102 100 91 85 82 79 75 75 75
74 77 80 82 84 87 92 96 99 101 101 103 107 108 110 112 111 103 97 97 101 105 108 100 92 89 87 83 79 75 71 71 68
85 86 86 89 91 94 96 97 98 102 104 106 108 112 115 115 111 95 95 100 106 104 97 97 90 86 84 81 74 70 68 59 68

GFSFLT1_250_spd_054.txt.gz
Wind_Speed
27 27 24 24 24 25 27 30 32 34 35 38 41 45 48 53 57 58 59 58 55 56 63 67 67 64 63 65 66 68 66 63 58
29 28 26 26 27 29 31 33 36 37 39 43 45 49 52 56 60 61 60 58 56 60 67 70 68 66 64 67 68 70 69 62 55
28 26 27 28 30 33 35 37 41 41 43 47 50 53 57 60 62 63 62 59 62 64 70 73 69 68 68 72 73 76 70 58 51
28 29 29 30 33 35 38 40 42 45 47 50 54 58 61 65 65 64 63 64 66 70 72 73 72 70 72 75 76 76 67 56 49
32 32 31 33 36 37 40 43 46 49 53 56 59 63 66 66 67 67 67 68 71 72 75 73 74 75 77 79 79 73 62 55 49
35 36 37 39 41 43 45 47 50 53 56 60 62 64 67 66 69 68 69 71 72 75 74 74 76 78 81 83 80 70 60 56 48
39 40 41 43 45 47 48 49 52 56 59 63 67 68 69 68 69 69 73 72 75 75 74 77 79 82 82 83 76 71 60 56 50
43 43 45 46 48 49 51 54 56 59 64 66 68 69 69 70 72 73 73 73 76 77 79 80 81 85 86 86 80 70 56 53 50
46 48 49 50 52 54 56 58 60 63 66 67 68 69 68 70 73 74 74 76 80 81 83 85 87 88 87 88 77 64 54 51 50
51 53 54 54 56 58 61 62 64 67 69 68 69 68 70 73 76 76 79 82 84 86 85 88 90 91 93 88 77 60 53 50 51
57 57 57 58 61 63 65 66 69 69 70 70 69 70 72 75 77 80 84 88 88 88 90 91 93 95 95 85 70 57 52 52 54
60 61 62 62 64 67 66 70 70 71 71 70 70 73 76 79 81 84 90 91 91 92 92 95 98 98 96 80 65 61 58 58 57
65 67 67 67 68 69 70 71 72 74 71 70 72 77 80 82 84 90 92 93 94 95 97 99 102 102 92 77 68 68 67 69 68
69 70 70 69 70 71 72 74 76 72 72 73 78 82 83 84 90 94 95 95 98 98 102 105 106 101 89 78 74 77 78 79 76
70 73 72 71 72 74 75 75 74 74 76 78 83 85 86 91 95 98 97 100 101 103 107 110 108 97 87 82 85 87 82 75 71
73 73 74 75 74 75 77 75 75 78 80 83 86 88 91 95 98 100 102 102 104 109 112 110 105 97 91 91 93 85 80 74 69
75 75 75 75 75 75 75 79 80 81 85 87 88 90 95 97 99 102 103 106 110 112 113 108 101 95 97 98 90 83 76 71 67
77 77 78 78 77 76 79 82 83 85 88 91 93 94 94 97 101 103 106 111 114 116 111 103 98 100 101 93 84 79 74 67 63
77 77 78 78 79 80 82 82 84 87 90 96 99 100 99 100 101 103 108 114 116 108 102 99 101 103 93 85 80 73 67 67 62
80 79 80 81 81 81 83 85 88 93 97 98 100 101 104 106 106 106 113 115 109 103 99 100 102 93 86 79 71 69 68 69 69

GFSFLT1_250_spd_057.txt.gz
Wind_Speed
28 28 28 28 26 25 25 26 28 29 31 32 34 36 40 44 47 52 55 58 59 58 56 59 59 62 68 69 68 69 71 74 70
30 30 30 29 27 27 27 28 30 32 33 35 37 40 43 47 51 56 59 61 61 60 59 62 63 67 71 69 70 73 75 76 71
32 32 31 30 28 28 29 31 32 34 35 38 40 43 46 52 54 60 62 64 64 63 63 65 66 71 70 71 73 76 76 78 73
32 32 32 30 29 30 32 34 35 36 38 41 43 47 51 54 58 63 65 65 66 64 65 67 68 71 70 73 75 76 77 78 73
32 33 32 31 32 34 36 37 39 41 43 45 47 51 54 58 62 65 64 65 65 66 67 69 71 74 74 76 76 78 78 81 75
34 34 35 35 36 38 40 41 43 45 47 48 50 54 57 61 64 67 68 67 68 68 68 70 74 76 77 78 78 80 81 82 77
35 36 37 38 40 42 43 45 47 49 51 53 54 57 61 63 66 67 69 70 70 70 70 73 76 80 80 80 80 82 83 85 77
39 39 40 41 43 44 46 47 50 52 55 56 58 61 63 65 67 68 69 70 72 73 74 75 81 83 83 82 83 85 87 87 75
41 42 43 45 46 48 50 52 53 55 57 59 62 63 65 69 69 71 71 74 74 74 75 81 85 85 87 85 87 89 89 88 72
45 46 47 49 50 52 54 55 57 59 60 63 65 65 68 71 72 71 73 75 76 76 79 86 88 87 88 89 90 91 92 85 68
49 50 51 53 55 57 57 59 62 63 65 65 66 69 71 74 74 73 76 77 78 81 85 89 90 90 91 92 93 96 93 82 68
55 55 56 56 59 59 61 63 66 66 67 67 70 72 75 76 76 78 79 79 83 85 89 92 92 94 94 95 98 98 93 80 69
60 60 59 59 60 62 65 66 67 68 68 71 73 75 75 76 78 80 80 84 86 89 93 93 95 96 97 101 102 98 86 77 72
63 63 62 61 64 66 67 69 70 71 72 73 75 76 77 78 79 81 84 87 90 94 95 96 99 100 103 104 103 95 86 81 81
65 65 65 65 67 69 71 72 73 75 75 76 78 78 79 80 81 85 88 91 95 95 97 101 103 105 106 108 101 93 87 87 83
66 68 70 71 72 71 73 76 77 76 77 76 78 79 80 82 85 87 92 98 99 100 102 104 106 108 109 106 99 92 89 85 71
71 73 74 74 74 76 76 76 76 78 79 80 79 80 84 87 88 92 97 98 100 105 106 106 110 110 107 102 97 95 88 71 65
75 76 77 78 77 78 79 80 80 80 80 83 85 85 84 87 92 97 100 101 105 107 107 111 112 110 103 99 97 91 76 67 61
76 77 77 79 79 80 80 81 81 81 82 86 88 89 90 92 92 96 100 104 108 108 110 111 110 104 102 99 93 80 70 64 55
78 78 78 79 80 81 82 83 84 85 86 88 91 94 95 98 99 99 102 106 104 108 110 108 104 101 99 94 85 72 68 58 56

GFSFLT1_250_spd_060.txt.gz
Wind_Speed
32 31 32 30 31 31 32 30 28 29 30 32 33 35 35 36 39 43 47 50 53 57 60 62 63 64 63 63 66 70 70 72 73
32 32 32 31 32 33 32 32 30 30 32 34 35 37 38 39 43 46 50 54 56 60 62 64 66 66 65 65 67 71 73 73 74
32 32 32 33 34 34 33 34 32 32 34 36 37 40 42 43 46 50 53 56 59 62 64 64 67 65 67 67 69 73 75 76 77
34 32 33 34 36 35 35 35 34 35 38 39 41 42 45 46 49 53 56 58 62 64 65 66 67 66 68 68 71 75 76 77 77
34 34 34 36 36 35 37 38 38 39 41 43 44 46 47 48 52 55 59 61 63 66 67 67 66 68 70 70 73 77 79 79 81
36 36 37 37 37 38 40 41 41 42 44 46 47 49 50 52 56 59 61 63 66 68 69 69 69 71 72 73 76 80 81 82 84
38 38 38 39 39 40 41 43 45 46 47 49 50 52 53 56 58 60 63 66 69 70 70 70 71 72 73 76 79 83 83 85 87
41 40 39 39 40 42 43 45 46 48 49 52 53 54 56 58 61 62 65 69 72 73 72 72 73 74 76 79 83 86 86 88 89
43 42 41 42 44 45 46 48 49 51 53 55 56 58 60 61 62 64 68 71 74 74 73 73 74 76 79 81 87 88 90 92 91
44 44 44 45 47 48 49 50 53 54 56 57 59 62 63 64 66 68 71 73 74 73 75 75 77 79 81 87 91 92 95 96 94
48 48 48 49 50 52 53 55 58 58 58 60 63 65 66 68 69 73 74 75 76 75 75 76 80 82 86 92 93 96 98 98 96
52 52 52 53 55 56 57 59 62 61 61 63 66 68 69 70 74 76 77 78 77 76 78 80 82 86 93 96 98 99 101 101 97
56 56 57 58 58 60 61 63 63 62 65 67 69 70 73 74 76 78 79 78 77 77 81 82 86 92 97 98 101 104 104 102 95
61 61 61 61 62 63 65 65 64 66 69 71 72 74 75 75 77 78 79 78 79 81 84 88 93 97 100 102 104 105 106 101 93
64 64 63 64 67 66 66 66 68 71 73 73 76 77 78 80 79 77 78 81 84 86 90 94 98 100 102 105 107 108 104 96 92
67 68 67 67 67 68 68 69 72 76 77 78 79 80 81 81 79 79 82 86 90 94 97 99 101 104 106 108 109 108 100 93 88
69 69 70 69 70 71 72 74 77 80 79 79 79 79 80 81 84 85 89 93 95 98 102 103 105 107 109 111 111 104 96 91 84
73 72 72 71 72 75 78 77 76 77 79 81 81 81 81 83 87 92 95 98 100 101 103 106 109 111 112 110 104 100 92 88 82
70 72 72 72 73 75 77 78 78 79 80 81 83 83 85 86 88 94 99 101 103 106 108 110 112 111 110 107 100 96 91 86 74
71 71 72 73 75 77 78 79 79 80 82 84 85 88 91 92 94 95 99 102 106 110 111 113 113 112 109 98 97 93 87 81 67

GFSFLT1_250_spd_063.txt.gz
Wind_Speed
32 32 32 33 33 34 34 33 33 34 34 34 35 35 36 37 37 39 42 45 48 50 52 56 57 61 62 65 68 67 66 66 69
32 33 33 35 35 35 35 34 35 36 35 37 37 37 38 38 40 42 45 47 50 52 55 58 59 61 64 67 67 66 67 68 70
33 34 34 36 36 37 35 36 37 38 38 39 39 39 40 41 42 44 47 49 52 54 56 58 61 64 67 69 68 68 68 70 71
35 36 37 37 37 37 36 38 38 39 39 41 41 42 43 45 46 48 49 51 54 56 58 60 62 66 69 68 69 69 71 72 73
36 38 38 37 38 37 38 39 39 40 41 42 44 45 47 48 49 50 52 53 56 58 59 62 65 68 70 70 70 71 72 73 75
37 38 38 39 39 39 39 39 41 42 43 44 46 48 49 51 52 54 54 55 57 59 61 64 66 70 70 71 72 73 74 75 80
38 39 39 40 41 41 42 41 43 44 44 46 48 51 52 54 56 57 58 59 61 61 64 67 70 72 70 72 73 75 76 78 84
38 39 41 42 43 43 43 43 44 45 47 48 51 52 55 57 58 60 61 62 64 66 67 70 73 72 73 74 76 77 78 82 90
41 42 42 43 43 43 43 45 46 48 50 52 54 56 59 60 61 62 64 65 67 70 71 73 73 74 76 77 79 80 82 88 94
44 45 46 46 45 45 46 48 50 51 53 55 57 59 61 61 62 65 67 68 69 71 74 75 74 75 75 79 81 84 89 94 97
49 48 48 48 48 50 51 53 54 56 57 58 60 63 64 63 66 68 70 71 72 74 74 74 75 75 78 81 85 89 95 99 101
53 52 53 54 53 54 55 56 57 58 61 62 62 66 64 66 69 72 74 75 75 75 75 75 75 79 82 86 91 96 99 100 103
54 56 57 57 58 58 59 59 61 62 63 65 66 67 67 70 73 76 78 78 77 77 78 77 80 83 86 90 95 100 102 104 105
59 58 59 60 61 62 63 63 65 66 67 68 68 69 71 74 78 79 78 80 80 80 79 82 82 86 90 95 98 101 105 108 110
66 64 63 64 65 65 66 67 68 70 70 69 72 72 74 78 80 79 79 80 81 82 83 82 87 91 95 99 103 105 107 109 111
71 69 68 69 69 70 70 70 72 71 72 72 73 75 79 80 80 81 80 81 82 84 86 90 93 97 100 104 106 110 111 110 108
72 73 72 70 72 73 73 73 74 74 74 74 76 75 78 80 78 83 83 84 87 89 91 96 99 103 106 110 112 112 112 110 103
75 73 71 72 73 74 73 71 70 72 74 75 77 76 78 80 82 85 92 93 95 97 100 102 105 108 111 114 114 114 108 104 98
80 79 76 74 73 71 71 71 71 72 73 77 80 81 82 85 87 92 95 97 100 102 105 107 111 113 115 116 114 109 104 99 91
82 81 78 76 73 74 77 77 77 79 82 82 85 87 89 93 95 95 96 100 104 108 110 115 116 118 119 115 114 105 99 90 85

GFSFLT1_250_spd_066.txt.gz
Wind_Speed
32 31 30 31 31 32 33 35 35 36 37 36 35 37 38 38 39 40 40 41 44 46 49 51 52 54 56 57 61 64 66 66 67
29 29 30 31 32 33 34 36 36 38 39 37 37 39 40 41 41 43 44 45 47 48 52 53 54 56 57 59 62 65 66 67 68
30 30 29 32 34 34 36 37 38 39 40 39 39 41 42 43 44 45 47 49 50 51 53 54 56 58 59 61 64 65 67 69 69
33 32 31 33 35 36 38 39 39 40 40 40 41 42 43 44 46 48 50 52 52 53 56 56 58 60 61 63 66 66 69 70 72
34 33 33 34 36 39 39 40 40 41 41 41 41 44 45 47 48 49 51 53 55 57 58 59 61 62 62 65 65 68 70 71 73
35 34 33 35 37 39 39 40 40 42 42 43 43 45 46 48 50 52 53 55 57 56 60 62 62 63 65 66 69 71 72 72 75
37 37 36 37 38 39 40 41 42 43 44 44 46 46 48 50 53 54 57 59 58 60 61 62 64 65 68 68 72 73 72 73 77
40 39 37 37 39 40 41 43 45 45 46 46 47 48 49 52 55 57 59 60 60 63 64 66 67 69 70 69 72 73 74 77 80
41 42 41 39 39 41 43 44 46 46 47 48 49 51 53 56 59 61 62 63 63 65 66 67 70 71 71 72 74 75 77 80 83
40 43 45 45 44 44 45 47 48 49 50 52 54 55 57 60 62 64 65 64 65 67 69 72 73 72 73 75 76 77 79 83 88
44 44 45 48 50 51 52 53 54 54 56 56 58 60 61 63 65 65 65 66 67 69 71 74 75 75 76 77 79 80 83 87 92
50 48 48 49 50 53 56 57 58 59 60 61 62 64 65 67 67 67 67 69 71 72 74 75 76 76 77 79 83 85 88 92 98
53 52 52 54 55 55 56 58 60 61 62 63 64 66 68 69 69 69 71 72 74 76 76 77 76 77 80 83 86 89 95 99 103
57 57 56 57 60 61 61 62 64 65 65 66 68 69 70 71 72 73 73 74 74 77 78 78 80 81 85 88 89 93 99 104 109
62 64 63 64 65 65 67 67 68 69 70 71 71 71 72 74 74 74 76 74 75 77 79 82 84 88 90 91 94 99 103 108 113
72 72 69 65 66 68 70 71 71 72 73 72 72 71 69 71 71 75 76 77 79 83 84 85 89 92 95 97 100 103 107 112 117
71 70 71 73 73 70 71 72 73 73 72 71 72 74 74 73 71 76 82 84 85 87 91 91 94 96 98 100 107 107 112 116 118
74 75 73 74 75 75 76 78 78 74 75 76 76 75 74 76 79 82 87 90 91 93 95 99 100 102 103 107 108 112 115 119 115
72 73 74 75 75 77 79 79 79 77 78 77 80 81 80 81 83 88 90 92 96 98 102 104 105 107 110 112 113 116 118 117 115
76 73 72 75 76 78 82 84 83 84 84 85 85 86 86 89 90 91 94 96 98 101 102 110 110 111 114 116 118 119 122 117 112

GFSFLT1_250_spd_069.txt.gz
Wind_Speed
34 32 31 31 30 30 31 31 32 32 35 36 38 39 39 39 39 41 41 44 45 47 49 51 52 53 54 56 57 57 59 60 63
33 32 32 30 30 30 31 32 33 34 36 37 39 40 41 40 42 43 43 45 47 49 51 52 53 54 55 57 57 59 61 63 65
33 32 32 33 32 31 31 33 34 35 37 39 40 41 42 42 43 43 45 47 49 51 53 53 56 57 57 58 59 61 63 64 66
32 32 33 34 34 33 32 32 35 37 39 40 41 42 43 43 44 45 47 49 50 52 54 56 58 58 60 61 62 62 64 65 67
31 32 34 35 35 34 33 33 35 38 39 40 42 42 44 45 47 47 48 49 52 55 57 58 59 61 64 64 63 65 66 66 68
33 31 34 35 35 34 33 35 37 38 39 40 42 44 46 47 48 48 50 51 54 57 60 61 63 65 67 64 65 66 66 68 70
33 33 32 36 37 38 38 37 38 39 40 42 44 47 48 49 49 51 53 54 58 61 62 64 65 66 64 66 68 68 68 70 72
35 36 35 34 36 39 39 39 38 40 42 44 47 49 51 52 52 54 56 58 61 63 64 65 65 66 68 69 71 71 71 72 74
41 40 39 38 36 37 39 40 41 43 45 48 50 51 52 54 57 59 61 64 65 67 65 65 67 69 71 72 73 74 74 76 78
47 45 45 43 40 39 40 42 43 46 49 51 53 55 57 59 61 63 65 66 66 66 68 68 70 71 73 74 75 75 77 79 81
52 51 50 47 45 44 44 44 44 46 49 52 54 55 58 60 62 63 66 68 67 68 69 70 73 75 76 76 79 79 80 82 85
56 56 54 52 50 49 48 48 47 49 51 54 56 58 62 63 64 66 69 69 69 70 71 72 73 72 75 79 82 84 86 86 88
58 57 56 56 55 53 52 53 54 55 56 57 59 64 64 66 67 69 72 70 70 74 73 71 72 76 79 83 86 87 89 91 95
60 60 61 61 60 59 57 58 59 62 62 63 65 67 68 69 68 69 69 71 72 74 75 75 81 81 84 85 88 91 93 95 98
66 65 60 61 63 64 62 63 68 68 67 65 67 68 67 66 72 75 75 75 73 74 75 80 82 86 87 91 94 95 97 100 102
70 71 70 69 69 67 68 69 67 69 69 71 68 69 73 76 75 76 78 78 75 78 80 80 85 89 93 98 98 98 101 102 106
72 71 69 70 71 72 72 70 73 71 72 70 72 72 76 77 78 77 79 80 81 82 84 87 91 94 97 100 102 105 105 106 109
75 76 76 75 73 72 73 74 75 76 75 72 73 72 74 77 79 79 82 83 86 87 88 92 96 97 98 103 106 107 109 110 113
79 79 81 82 80 79 79 79 80 77 75 75 76 78 77 79 79 79 83 85 86 89 90 95 98 99 102 105 108 110 113 114 117
89 89 89 87 87 86 85 81 81 80 78 77 79 80 81 81 82 81 85 87 89 90 94 98 99 101 104 111 114 115 115 118 118

GFSFLT1_250_spd_075.txt.gz
Wind_Speed
31 30 29 29 28 29 26 27 27 28 30 29 29 28 29 31 34 35 36 36 37 40 42 44 47 49 49 51 54 56 56 56 58
31 30 28 29 28 28 27 27 28 29 29 30 30 28 29 32 34 36 36 37 39 42 44 46 49 49 51 54 56 57 57 59 59
32 30 30 29 28 27 27 28 28 29 30 31 32 30 30 32 34 35 36 38 41 44 46 49 50 53 54 55 57 58 60 61 62
36 32 31 31 29 30 29 27 27 28 30 30 32 32 32 33 34 35 36 38 42 44 46 48 52 53 55 58 58 61 64 65 65
40 37 34 33 31 31 31 28 27 27 29 31 32 34 35 34 34 34 36 39 42 44 47 50 53 55 57 57 61 66 66 68 67
42 39 36 35 33 32 30 29 30 29 29 31 33 35 38 39 38 37 37 39 46 49 50 53 54 54 58 60 64 67 69 70 70
40 38 36 36 34 33 31 31 31 31 32 33 33 35 36 36 37 39 41 42 45 48 50 55 58 58 62 64 67 68 74 73 71
40 40 39 36 35 36 35 35 36 36 37 37 38 38 37 38 40 41 42 45 50 51 54 59 59 63 65 69 68 74 76 75 75
44 43 42 39 37 38 39 39 40 42 44 44 43 44 45 43 44 45 47 50 53 55 59 64 64 67 68 69 72 75 77 76 78
46 45 45 44 43 42 41 42 43 46 48 50 50 50 50 50 49 50 52 54 56 56 62 66 66 69 69 74 76 78 78 78 79
50 49 47 47 47 46 47 48 49 52 52 53 55 53 52 53 55 56 58 59 57 60 62 64 69 73 76 80 79 80 80 78 83
55 56 54 52 55 52 53 53 54 54 55 55 56 56 58 59 61 61 61 61 63 63 67 68 72 75 81 81 83 81 82 80 84
58 58 59 59 58 60 60 57 56 58 59 59 59 57 59 61 61 60 58 63 65 69 72 73 80 80 82 80 82 83 81 82 86
65 67 64 64 64 65 63 61 61 62 62 61 62 63 64 64 65 67 68 70 72 73 79 80 80 83 80 82 81 82 82 83 88
65 66 68 68 67 66 66 66 67 64 62 61 65 67 69 68 69 69 70 71 73 80 80 83 84 80 81 80 82 83 86 89 85
68 67 70 72 72 74 73 72 72 70 67 65 66 68 70 72 73 75 79 79 80 82 85 86 81 84 80 78 80 85 90 86 87
72 76 77 80 79 78 79 77 72 69 71 66 70 76 77 76 78 80 81 83 84 83 81 84 87 83 81 83 85 86 80 90 97
76 79 80 77 79 80 74 75 72 70 77 77 75 76 82 84 86 85 85 85 85 84 86 85 86 85 83 81 85 88 96 99 100
80 78 79 79 80 81 82 84 84 81 80 83 83 85 84 83 84 85 89 84 87 85 87 84 86 93 94 93 96 100 102 103 97
83 81 83 88 87 90 91 91 90 90 86 85 86 81 80 83 82 82 86 85 83 87 89 95 96 98 100 103 106 105 102 102 102

GFSFLT1_250_spd_078.txt.gz
Wind_Speed
29 29 29 29 28 28 27 26 25 25 24 25 26 27 28 26 24 24 25 26 27 29 31 32 32 36 40 43 42 46 51 56 58
34 32 31 29 28 28 27 26 26 26 25 24 25 26 27 27 25 25 27 27 28 29 32 35 36 39 42 43 45 52 52 59 60
33 33 31 30 30 29 28 26 27 27 26 24 24 26 27 28 28 28 29 29 29 29 32 36 38 41 46 46 47 54 55 59 62
34 33 33 35 34 32 30 29 27 27 27 27 25 24 25 28 30 31 32 32 31 33 37 41 38 44 48 52 53 56 58 61 66
39 38 39 36 38 35 32 31 30 29 26 26 25 26 27 28 30 30 31 32 36 37 39 42 44 46 51 53 55 60 64 63 69
42 42 41 38 36 36 33 32 31 30 28 26 28 30 31 32 32 33 35 37 38 40 43 45 48 47 52 56 59 63 65 67 73
45 43 43 40 36 31 32 33 31 31 31 31 31 33 36 36 37 39 40 41 42 44 47 49 51 53 55 58 60 64 64 71 76
47 44 42 41 38 36 36 36 35 34 34 34 35 36 39 42 43 44 46 46 46 48 52 54 55 57 58 60 66 68 73 74 75
44 43 40 41 42 40 38 38 38 38 38 38 40 43 46 45 47 50 49 49 52 55 58 59 56 58 59 64 67 71 78 78 78
47 46 44 42 46 44 43 42 42 43 42 43 44 47 48 46 49 50 49 51 54 56 56 55 59 63 67 70 69 75 78 78 80
49 48 47 48 48 48 47 48 47 46 48 49 50 49 48 49 50 50 52 54 57 54 56 61 65 69 72 73 77 77 77 76 79
51 51 55 51 49 51 52 52 53 53 54 56 57 55 52 52 52 53 57 59 61 64 61 64 70 73 75 76 80 80 77 79 80
54 52 51 53 53 54 55 57 58 61 60 59 58 58 57 56 56 57 58 59 62 63 66 68 72 74 75 79 81 81 78 82 79
50 53 54 53 57 60 59 61 61 62 62 61 62 62 61 59 61 60 63 66 67 66 70 71 73 77 80 80 80 82 82 82 78
58 58 60 62 60 57 62 65 65 64 64 65 70 69 68 64 62 67 69 72 72 71 76 77 79 78 78 82 81 83 82 77 81
71 69 66 65 65 67 64 65 68 70 69 70 72 72 73 74 71 78 78 72 72 77 77 75 76 75 80 78 79 81 78 85 84
79 66 69 73 70 72 71 75 76 75 75 77 76 77 78 76 79 76 74 76 75 77 80 77 78 80 82 83 84 85 89 90 96
70 73 77 80 84 85 81 81 79 82 84 80 80 76 77 77 76 76 79 78 78 81 81 81 81 84 87 86 88 89 91 97 102
79 81 84 84 85 85 86 89 88 86 85 85 82 83 81 85 84 86 87 87 84 89 90 86 91 89 89 92 93 93 98 109 114
86 86 86 92 97 90 92 94 91 94 95 94 91 92 89 90 86 85 89 87 88 87 88 87 91 100 102 96 103 105 110 111 103

GFSFLT1_250_spd_081.txt.gz
Wind_Speed
28 28 28 28 26 25 25 25 25 25 24 25 25 23 21 20 22 21 20 20 19 19 19 20 29 32 32 35 39 40 44 48 53
31 30 30 29 26 25 24 26 26 25 26 25 25 25 24 22 21 20 20 21 22 24 25 28 31 33 38 38 39 42 46 53 56
35 34 33 31 28 27 28 29 29 26 27 26 25 23 23 22 23 23 23 23 23 24 28 30 34 36 40 41 42 49 50 55 57
39 37 36 32 31 32 34 31 31 30 28 28 26 23 20 21 22 23 25 25 26 30 31 33 35 40 42 46 47 51 54 57 58
39 39 37 36 36 36 34 34 31 31 30 27 25 24 25 25 25 27 29 31 33 35 37 39 40 43 47 48 49 52 57 59 61
44 41 38 40 39 38 37 36 33 31 30 28 27 27 27 28 29 31 34 35 36 38 39 40 43 46 47 49 51 54 59 63 66
49 47 47 42 42 41 40 37 34 34 33 33 32 31 31 32 34 37 40 39 40 41 40 43 46 48 49 51 56 59 63 65 67
50 46 45 43 42 42 37 35 35 36 35 33 35 35 35 35 38 41 41 42 42 43 44 45 49 52 52 55 60 63 65 68 68
45 44 44 45 41 39 38 37 40 39 37 38 39 39 39 40 42 42 44 44 43 44 50 52 54 55 57 58 63 66 67 71 72
43 38 38 39 41 41 41 40 40 42 42 42 41 44 43 44 47 49 48 49 46 51 53 55 57 58 58 61 65 65 70 72 71
50 48 47 47 46 45 46 44 46 47 44 46 47 48 49 50 52 51 50 52 52 50 55 58 60 64 63 60 65 67 68 69 70
51 51 53 53 51 50 49 51 52 50 48 49 50 52 53 55 54 53 52 53 54 56 59 64 67 67 65 63 68 69 70 69 74
49 46 41 48 51 52 53 54 51 47 51 53 56 56 56 56 58 59 60 58 58 59 66 65 68 63 63 66 73 71 71 71 78
40 36 39 47 49 50 51 52 52 53 52 53 55 56 59 60 61 63 65 63 64 67 66 65 63 65 71 76 77 75 77 73 80
52 58 56 54 56 56 56 58 64 59 55 58 60 61 64 66 68 69 65 66 68 70 69 69 72 77 74 76 76 79 80 78 76
67 73 77 73 72 75 72 78 75 75 68 70 68 72 70 71 71 69 69 69 68 73 72 75 79 81 80 74 75 78 80 80 90
71 77 84 84 86 84 83 81 84 72 74 74 74 77 78 76 74 72 73 73 74 78 81 83 83 84 80 77 80 81 84 89 91
71 70 71 78 81 80 80 79 80 82 79 80 82 85 85 79 76 76 75 79 84 86 82 85 82 87 83 84 85 87 93 100 98
69 69 75 76 72 73 78 79 81 85 88 92 93 88 86 82 85 85 86 94 89 87 87 85 83 89 95 87 94 97 98 104 108
78 77 82 85 88 78 85 86 89 89 95 97 92 82 76 85 85 89 97 99 87 88 90 96 94 101 94 104 100 99 105 113 117

GFSFLT1_250_spd_084.txt.gz
Wind_Speed
29 28 25 24 25 25 24 22 20 22 23 22 24 23 24 22 21 20 19 17 18 17 19 20 23 26 31 34 37 42 42 42 46
28 27 27 27 27 27 24 24 25 24 26 25 25 25 25 22 19 17 17 18 20 21 22 25 28 31 32 35 39 43 42 45 50
32 32 30 31 31 29 29 27 29 30 27 28 27 27 25 23 19 19 18 20 22 24 27 31 33 35 38 37 40 42 45 48 52
34 35 35 34 34 33 31 31 32 32 31 29 28 28 26 23 23 23 23 25 26 29 30 32 33 33 35 40 43 45 50 53 57
40 39 39 35 33 33 32 33 34 34 35 32 31 29 27 27 26 26 27 29 32 33 33 35 36 38 40 45 46 49 52 55 56
44 43 42 39 40 38 38 35 36 34 35 32 30 30 32 31 30 30 31 32 34 33 36 38 38 41 45 48 50 53 55 55 55
48 46 47 43 44 44 44 42 39 37 34 32 31 33 33 33 34 34 34 37 38 40 42 40 45 48 50 52 54 55 56 56 58
43 40 43 45 45 46 43 41 38 38 34 33 35 34 32 35 38 36 39 41 42 46 47 47 51 49 51 53 58 58 58 55 58
54 56 53 49 48 43 42 40 40 36 35 34 35 37 39 38 36 42 42 44 47 49 49 50 48 49 53 54 56 58 59 58 65
57 58 55 50 48 44 39 38 36 37 38 38 39 41 41 40 42 42 44 46 49 51 51 52 52 55 52 56 55 58 60 65 67
57 54 50 48 45 41 42 44 42 42 42 45 46 47 46 45 44 46 51 53 54 54 58 57 57 58 57 59 56 59 64 67 71
51 49 50 50 48 50 48 48 50 50 49 48 49 50 47 47 48 51 54 56 57 59 59 60 60 62 62 63 63 65 70 73 72
51 52 56 54 51 49 48 52 52 52 51 51 52 52 50 48 48 53 56 58 60 59 61 64 67 66 68 70 70 72 75 75 77
56 57 58 57 50 50 45 42 47 50 50 49 50 52 54 58 63 66 65 65 62 62 66 65 65 65 68 73 78 78 77 79 79
58 63 60 54 55 51 48 48 48 51 50 52 56 63 65 73 76 75 67 63 66 67 68 68 66 67 70 79 79 77 76 80 83
61 62 60 56 55 58 57 63 66 69 73 75 76 76 77 77 77 74 72 68 70 71 75 72 71 75 78 84 81 76 79 81 84
59 63 67 69 73 68 72 75 76 75 77 79 81 84 83 81 78 78 74 71 74 77 77 73 81 85 81 86 77 78 82 85 91
69 66 68 74 79 82 83 83 83 85 87 89 85 86 82 84 81 80 78 78 78 75 67 71 87 81 83 83 78 82 85 90 96
81 82 82 82 83 91 89 92 89 90 87 91 85 88 87 86 84 83 81 76 70 73 78 87 97 92 90 90 86 86 91 96 97
81 79 78 82 74 68 77 76 76 78 82 80 89 94 94 93 85 87 83 82 86 88 90 94 95 96 102 104 98 99 98 101 106

GFSFLT1_250_spd_087.txt.gz
Wind_Speed
30 27 27 28 26 23 21 22 21 18 21 24 23 24 25 26 25 23 20 19 17 18 19 22 25 27 33 35 36 35 37 42 46
32 31 30 27 25 24 25 24 23 26 25 26 25 27 25 26 27 25 21 18 18 20 22 24 25 27 28 30 31 37 41 46 49
36 33 32 28 30 27 27 29 27 27 28 29 28 28 27 27 27 26 24 23 23 25 25 28 29 33 35 37 39 42 46 48 48
39 36 33 33 30 32 32 33 31 30 30 31 31 31 28 29 28 28 27 27 27 28 31 33 32 37 40 41 45 47 46 47 49
42 39 37 36 36 36 36 32 30 29 31 32 32 33 29 28 28 29 30 30 30 31 32 35 40 41 44 46 48 47 48 50 54
44 44 41 40 39 38 39 37 38 38 38 37 37 36 29 28 31 32 32 33 33 33 36 39 41 44 44 47 44 47 50 50 49
51 47 47 45 44 46 42 40 38 40 41 39 39 36 33 31 31 32 33 35 35 35 39 42 45 46 49 46 48 48 54 53 54
53 50 49 47 43 39 40 39 42 42 42 40 37 36 34 35 34 34 37 36 35 40 41 44 47 48 48 51 52 56 59 58 59
57 53 52 48 47 49 49 47 50 46 40 40 42 36 35 35 36 35 38 39 41 40 43 47 50 51 54 54 57 59 60 56 59
56 50 48 52 53 55 54 56 54 53 44 40 35 35 38 38 40 41 42 42 43 46 49 50 53 56 54 55 59 58 60 60 63
54 55 54 57 58 56 55 56 53 45 43 41 44 44 44 45 44 45 46 45 45 45 49 55 60 58 58 59 62 66 66 67 71
58 56 56 58 55 54 53 51 53 47 46 49 50 50 48 49 47 47 44 45 43 52 59 58 64 60 61 62 63 67 66 71 72
60 54 54 54 47 45 46 47 50 51 52 51 51 51 48 50 49 50 48 48 51 58 62 66 68 63 65 64 64 67 66 66 75
54 51 52 50 46 50 52 51 54 53 53 53 48 46 47 53 51 49 48 60 63 67 69 71 74 69 66 69 69 67 71 73 79
55 54 55 52 49 52 56 57 57 57 56 55 52 50 50 53 52 58 64 68 67 71 70 72 71 70 72 73 68 63 69 79 85
55 57 57 59 58 55 58 60 62 63 62 60 61 58 57 62 66 67 70 72 77 78 79 74 74 75 72 63 68 74 78 83 88
62 59 61 62 64 61 59 60 63 65 65 67 71 73 74 75 76 82 82 88 83 85 79 78 77 67 69 70 76 77 82 88 91
66 66 60 66 61 58 57 61 64 69 74 79 83 86 90 90 93 97 94 94 90 85 83 84 73 77 76 75 75 82 85 91 96
71 78 75 68 66 64 60 65 66 75 77 83 88 92 96 98 99 99 95 96 86 89 82 84 81 80 76 85 87 86 87 95 96
78 78 74 68 69 70 68 71 73 70 85 86 87 84 88 85 86 84 88 95 93 90 94 88 76 84 81 85 93 91 96 100 106

GFSFLT1_250_spd_090.txt.gz
Wind_Speed
29 26 27 27 23 24 24 21 20 20 19 21 24 25 24 24 25 24 24 23 20 18 17 19 21 23 24 26 32 34 38 43 42
34 30 28 27 26 25 23 24 23 23 24 23 25 26 26 26 25 26 26 25 22 22 23 24 25 28 27 31 36 38 42 43 45
36 35 32 30 29 27 26 27 28 26 28 28 27 28 28 28 28 27 27 27 26 26 28 28 28 30 33 36 38 40 44 43 46
37 38 37 34 32 30 31 28 29 30 30 26 26 27 30 29 31 27 26 27 28 30 30 30 31 33 36 38 41 39 41 48 48
42 40 39 39 36 33 34 35 35 34 32 31 31 32 34 35 34 30 27 29 31 32 32 32 33 37 39 39 43 40 46 52 50
47 45 44 40 40 38 37 38 36 38 38 37 35 35 36 37 36 32 29 28 29 30 32 34 34 38 37 41 44 51 52 49 54
53 51 48 46 43 41 42 41 39 39 44 38 38 38 38 39 37 36 34 33 32 31 33 30 34 36 40 45 46 53 54 55 57
59 54 51 49 47 46 46 44 41 42 43 40 42 42 41 38 38 37 36 33 32 35 35 36 39 42 43 44 51 55 57 58 58
62 56 58 53 54 52 50 48 45 48 45 47 51 52 46 42 44 37 34 36 38 38 38 39 39 38 42 50 55 61 63 59 57
61 61 58 62 57 57 50 53 54 49 53 53 51 51 47 44 35 37 39 41 41 40 41 40 40 41 46 55 58 58 61 59 60
62 61 60 61 63 52 52 48 49 54 55 55 52 49 42 41 40 44 46 44 43 44 42 41 41 43 53 57 61 64 63 63 65
61 58 56 56 52 49 58 57 55 56 56 50 47 47 47 47 48 48 47 44 47 47 46 45 45 47 51 57 65 64 65 66 63
58 60 62 58 60 62 62 58 56 57 51 42 43 46 46 51 53 51 50 48 50 49 49 50 50 53 60 68 70 66 67 63 60
62 61 62 61 63 61 56 53 57 54 49 47 47 47 48 51 54 52 50 52 52 52 51 53 58 64 72 73 70 70 70 65 60
63 61 62 61 57 57 55 55 57 56 52 49 52 52 55 54 56 55 55 56 55 53 57 66 68 78 81 78 72 77 73 63 62
59 58 62 61 61 57 53 54 57 57 57 53 55 55 58 58 61 59 58 60 58 64 70 74 80 83 83 85 82 78 79 65 67
59 59 60 62 64 67 63 58 60 62 59 60 56 56 60 61 64 64 62 66 72 74 78 80 83 84 87 86 79 80 75 71 71
59 61 59 58 67 67 65 64 61 70 65 61 58 59 65 66 69 69 73 76 78 81 84 86 86 82 81 78 78 72 76 69 72
65 63 65 66 65 63 63 62 61 67 64 63 61 69 69 68 71 76 79 82 83 87 88 85 80 81 83 84 85 78 80 72 74
72 70 72 68 67 66 72 72 65 65 62 64 71 72 73 76 81 79 86 90 88 83 86 80 87 93 83 86 84 78 76 74 77

GFSFLT1_250_spd_093.txt.gz
Wind_Speed
31 29 26 25 24 26 24 22 22 22 23 22 22 23 24 23 24 25 24 24 23 23 22 21 21 23 25 25 28 31 34 38 42
33 32 31 30 27 26 26 24 23 24 26 27 25 27 27 26 26 27 26 27 25 24 24 25 26 26 25 27 30 34 37 41 44
38 35 33 34 31 29 28 27 26 26 29 29 29 29 26 26 26 28 29 30 28 26 26 27 29 28 27 28 32 37 35 39 46
43 40 38 35 34 33 32 32 30 31 29 29 32 31 29 28 30 30 33 34 31 29 29 30 28 27 28 30 32 31 37 41 51
47 44 41 39 36 34 35 35 35 35 34 34 35 35 36 34 33 34 35 35 33 32 30 30 27 27 28 29 32 35 40 46 50
51 49 48 46 43 39 36 37 37 39 39 37 35 36 40 37 36 36 37 38 35 34 33 34 31 31 28 30 34 35 38 44 49
54 53 52 51 47 44 42 39 40 40 39 42 41 44 42 41 40 38 41 39 38 35 33 33 31 33 32 34 34 34 42 44 51
59 57 56 54 52 49 48 47 45 44 45 45 43 43 44 42 44 46 45 41 43 40 34 33 35 37 36 35 36 36 39 48 57
62 62 60 58 57 54 52 50 49 51 50 49 49 46 45 48 47 47 47 43 42 34 34 35 37 39 39 38 36 38 42 53 61
65 68 62 61 60 57 54 53 54 55 55 51 49 49 50 51 48 49 45 42 39 36 40 41 40 40 41 41 40 42 45 60 64
69 69 66 61 59 57 56 55 56 62 59 57 49 55 58 52 50 50 45 43 43 41 43 44 42 43 42 44 44 47 60 67 65
70 67 66 67 61 57 55 55 55 53 53 50 48 53 56 54 50 46 45 46 46 49 48 48 47 47 46 46 47 53 64 70 70
67 70 70 69 62 59 58 58 59 48 55 56 60 56 55 56 47 45 41 43 46 48 49 48 48 51 52 49 52 59 63 69 74
68 69 67 68 65 66 64 59 60 63 60 58 60 57 57 59 50 47 48 49 44 47 47 50 52 55 53 55 57 61 69 74 73
64 63 65 64 64 64 63 59 58 59 59 62 59 56 62 59 54 48 48 50 49 51 50 52 54 57 58 61 65 68 70 75 76
59 62 62 62 65 66 62 60 59 58 59 59 57 49 52 65 63 56 55 54 53 55 56 59 55 58 64 65 68 72 75 79 77
59 61 63 58 59 61 57 57 60 61 62 61 64 60 64 65 63 63 63 59 58 58 61 61 62 63 64 71 72 76 76 75 73
65 62 64 64 58 56 60 64 63 66 66 68 65 64 64 70 71 68 63 61 59 64 67 66 66 67 73 75 81 79 81 77 71
67 63 66 61 57 59 59 63 69 72 69 69 67 66 65 71 72 71 69 67 64 67 70 69 76 75 80 85 83 80 78 73 73
78 73 64 63 62 63 61 71 69 71 70 70 73 71 70 73 76 77 72 73 71 74 77 78 81 82 85 83 86 84 80 79 77

GFSFLT1_250_spd_096.txt.gz
Wind_Speed
33 32 28 26 26 23 23 24 25 26 22 21 22 24 24 25 27 27 26 27 26 26 26 26 25 24 23 24 25 27 28 31 31
38 35 33 31 30 29 27 25 24 25 27 27 27 25 26 27 26 25 25 27 29 31 32 30 28 28 27 26 26 27 27 27 33
43 40 37 33 31 32 32 29 27 26 26 28 27 28 28 28 29 27 28 30 31 33 34 33 32 30 30 26 27 27 27 29 33
47 44 42 39 36 34 33 34 32 31 30 30 31 32 33 34 32 32 32 32 32 34 37 34 33 31 29 28 28 27 30 33 34
53 51 48 45 42 39 36 35 36 35 34 33 34 35 33 34 32 31 35 34 35 35 38 32 33 33 33 32 30 31 32 31 32
59 57 52 48 47 44 41 38 37 37 35 36 38 39 37 36 37 41 41 38 36 39 40 35 37 33 31 32 33 34 34 35 37
64 62 58 54 51 49 46 44 43 42 39 38 38 40 40 39 41 42 40 37 38 41 41 41 40 36 33 34 36 36 39 37 38
66 66 64 61 56 52 48 48 46 45 45 44 45 43 44 45 40 43 44 39 40 42 43 41 39 31 31 35 37 40 39 40 40
71 68 67 66 62 57 54 53 52 50 50 49 48 48 49 48 46 48 52 48 45 44 44 43 38 36 36 39 40 40 42 43 44
73 72 70 69 66 63 59 58 56 54 54 52 51 52 53 53 48 45 54 51 45 46 46 45 40 38 39 39 42 44 46 43 45
71 72 73 70 69 68 63 61 61 59 56 55 55 54 54 54 50 50 51 48 48 48 47 45 45 46 47 45 44 46 45 47 49
69 74 69 70 70 67 64 64 62 57 57 55 55 53 53 52 54 60 53 52 50 48 45 43 42 45 43 43 46 47 51 53 54
69 73 70 74 74 69 69 66 64 63 61 56 53 53 58 58 53 55 57 58 52 46 46 41 40 42 42 44 44 50 52 53 55
71 75 79 77 75 71 73 70 69 70 69 63 60 57 51 53 54 56 61 59 52 50 50 48 46 45 44 46 46 48 53 55 58
70 74 75 73 70 70 69 71 70 69 70 65 66 65 61 61 62 61 60 58 56 54 53 54 54 52 53 49 47 48 51 57 60
64 66 65 68 68 71 68 68 69 68 68 66 67 63 59 60 63 58 56 53 57 58 60 62 62 61 61 53 53 53 54 58 63
72 64 59 60 59 60 62 62 64 68 67 65 66 65 62 62 64 63 63 65 65 60 57 62 65 65 62 58 61 58 61 63 67
74 71 66 62 60 58 56 58 60 65 62 63 58 66 62 65 65 65 64 64 64 64 62 65 71 72 66 68 62 58 67 64 73
84 73 79 62 62 65 59 57 61 61 62 52 50 59 67 67 66 66 66 66 68 64 63 70 72 76 74 76 65 68 69 75 81
89 84 72 74 72 73 73 78 67 66 67 67 65 63 63 63 69 71 73 75 72 73 71 72 76 76 77 71 74 70 79 78 80

GFSFLT1_250_spd_099.txt.gz
Wind_Speed
38 35 33 31 31 29 26 27 26 26 25 25 24 22 23 25 23 25 24 22 22 25 27 28 31 31 29 28 28 28 27 28 26
45 42 38 36 35 32 31 30 28 28 27 27 26 25 26 25 24 25 28 27 28 26 27 28 31 31 29 28 28 27 27 26 27
48 48 43 42 39 37 34 33 33 31 31 29 29 28 27 28 27 29 30 28 29 30 30 30 32 33 28 27 30 29 28 28 33
55 51 49 45 45 40 37 35 34 36 35 34 32 32 32 31 30 29 28 29 30 34 34 33 33 34 33 31 29 30 28 29 34
61 57 55 51 49 46 42 40 38 38 38 37 37 37 35 35 33 34 31 32 35 37 32 32 35 36 37 36 32 32 32 33 34
63 62 61 59 53 50 48 45 43 42 41 41 38 37 38 36 36 35 34 34 32 33 35 34 36 37 38 38 37 33 33 35 36
68 67 65 64 60 57 54 50 47 47 45 44 43 40 40 38 36 37 39 36 39 42 38 39 40 37 40 41 37 32 33 38 39
72 69 69 68 67 63 60 56 51 50 49 47 46 45 43 44 44 43 40 44 43 43 40 42 42 41 39 40 37 37 37 38 40
69 71 74 73 71 69 65 63 58 55 54 52 50 49 48 49 49 46 49 42 39 40 47 44 44 41 44 41 36 37 40 42 43
72 72 73 75 75 72 69 67 64 62 60 58 54 52 53 51 51 51 51 47 45 49 45 42 41 45 44 43 42 42 41 41 44
70 72 74 75 77 75 72 70 68 66 63 62 60 57 57 56 53 54 53 47 48 55 56 48 41 47 47 44 43 42 40 39 41
70 72 70 75 73 75 74 73 71 70 67 64 63 60 57 56 55 54 51 50 52 54 56 50 48 50 43 41 39 41 43 41 39
69 67 68 74 69 67 71 77 76 70 68 66 65 63 62 59 59 61 58 54 52 51 57 54 54 52 43 44 44 46 48 44 43
67 70 66 72 72 70 68 72 77 73 73 70 67 65 65 66 66 66 65 63 64 65 64 58 57 52 44 48 48 50 53 53 48
66 68 68 70 74 76 79 77 77 76 76 75 70 71 71 70 69 67 68 65 64 59 60 60 61 56 47 51 54 57 56 55 51
65 66 68 65 69 70 72 76 78 71 72 72 73 70 68 67 69 69 67 65 67 65 61 61 57 53 50 49 53 56 56 57 59
67 68 68 68 69 70 69 69 72 73 73 72 69 68 73 72 71 68 69 69 65 62 65 58 55 55 54 53 56 55 62 62 66
71 70 64 70 68 69 70 68 71 70 73 75 75 72 69 69 65 65 62 66 64 64 61 58 59 59 60 57 60 61 61 66 66
68 68 70 68 70 71 69 66 62 61 59 60 60 62 59 63 63 66 54 57 59 59 62 59 61 62 61 63 63 59 63 65 67
69 66 62 60 61 67 67 69 60 61 60 60 60 64 65 67 70 72 74 70 67 63 63 63 67 70 66 67 64 65 62 65 63

GFSFLT1_250_spd_102.txt.gz
Wind_Speed
45 42 37 35 33 31 30 30 29 30 30 28 26 25 24 23 24 22 21 22 24 23 23 24 27 27 29 26 25 26 26 26 26
50 47 43 40 38 35 34 33 33 31 31 32 31 29 27 27 26 24 24 23 24 25 23 23 27 27 28 29 29 29 27 26 27
55 52 50 48 45 41 38 37 36 34 34 34 34 33 31 29 29 28 28 27 25 27 28 30 28 26 27 29 30 30 30 28 29
60 57 54 52 50 48 45 42 40 39 37 36 36 37 36 34 34 33 32 31 29 28 28 29 30 29 30 30 32 32 32 31 32
64 63 60 59 56 51 50 48 45 43 42 39 37 37 37 38 37 37 36 35 33 30 28 31 33 29 29 33 33 34 35 32 33
69 68 66 63 63 59 55 53 51 49 47 44 42 40 39 39 38 36 35 34 34 35 35 35 35 35 35 36 36 32 36 33 30
68 71 71 69 67 65 61 58 57 55 52 49 47 46 44 42 41 40 40 39 39 40 36 38 37 33 36 39 39 37 37 34 32
67 67 73 72 70 72 66 62 61 59 58 56 53 49 48 45 45 44 44 43 43 44 41 41 39 41 41 35 36 38 43 37 33
61 65 68 69 73 75 72 68 66 64 63 62 59 55 52 50 48 48 48 48 46 45 45 46 42 46 47 46 42 40 44 38 39
63 66 65 64 68 72 74 75 72 68 67 67 65 62 60 58 55 54 52 51 50 48 47 49 45 46 51 44 47 43 45 39 36
63 65 66 67 67 67 68 72 75 73 71 71 68 67 66 63 61 58 58 56 55 52 50 47 43 47 51 44 46 45 43 40 38
56 58 62 66 68 69 68 68 73 76 78 75 73 69 67 67 64 61 62 60 56 54 55 55 52 57 56 53 51 50 45 43 43
62 64 64 66 65 68 69 66 68 73 79 78 77 73 70 68 68 65 64 63 62 59 62 59 60 59 60 59 49 49 51 46 44
64 66 67 68 65 68 67 68 67 68 75 80 79 75 73 71 68 66 67 66 63 65 60 63 64 58 60 60 52 55 48 45 47
61 62 64 66 71 72 67 73 70 69 69 75 79 79 78 76 73 74 70 67 62 60 59 64 65 61 58 56 60 52 45 41 44
69 67 65 64 65 67 67 65 66 69 68 71 72 68 68 73 76 75 73 69 70 70 74 67 64 59 62 62 59 55 46 51 45
73 75 73 67 66 66 64 68 70 67 68 74 77 75 76 75 76 75 75 77 74 71 72 69 67 63 61 55 53 55 50 50 50
81 79 79 73 69 68 69 67 69 69 69 71 72 69 71 71 72 75 75 75 73 70 71 67 61 60 56 55 56 51 47 52 52
89 86 83 79 75 72 69 68 64 66 72 76 72 68 69 69 70 69 71 70 68 68 70 66 63 56 55 59 60 54 55 55 55
91 89 88 84 78 75 73 70 68 67 71 71 64 66 66 66 59 59 63 68 66 69 68 68 68 70 65 64 62 50 54 58 62

GFSFLT1_250_spd_105.txt.gz
Wind_Speed
46 44 43 42 41 38 36 33 29 28 29 28 29 28 26 25 24 24 24 22 21 20 21 21 19 24 22 21 22 24 24 24 25
49 49 48 47 46 43 40 39 36 33 32 30 29 31 31 29 28 28 27 26 25 25 25 26 25 25 25 25 24 25 25 27 25
58 53 52 51 48 48 46 43 41 39 36 34 32 32 33 33 32 31 31 31 31 29 29 27 26 24 27 27 25 26 29 32 30
61 59 56 56 56 53 51 50 47 44 42 40 37 35 35 36 36 34 33 34 33 33 32 31 27 28 28 30 29 32 33 31 32
68 66 63 60 58 59 56 54 53 51 50 46 43 41 39 37 36 36 36 35 36 33 33 31 31 30 34 33 29 29 35 33 33
59 65 67 66 63 61 62 60 58 55 52 51 51 47 44 42 40 39 38 39 37 35 36 36 36 36 36 31 29 32 33 33 33
56 58 62 64 66 67 67 67 65 63 59 55 54 53 50 48 47 45 45 42 41 40 40 39 39 39 35 34 38 36 37 35 39
53 55 56 57 64 69 70 71 69 66 65 62 59 57 57 55 51 50 49 48 46 44 44 44 41 42 39 34 35 38 34 37 41
55 53 51 52 55 60 65 68 72 71 71 70 67 63 60 60 59 57 55 52 50 48 47 48 46 45 43 41 43 47 45 40 42
56 56 57 58 57 54 55 60 66 70 73 73 72 69 67 65 63 62 61 60 59 58 55 54 52 50 46 45 47 48 47 44 45
53 57 59 56 56 55 55 57 60 64 69 72 74 75 74 71 67 66 65 64 62 62 60 57 54 51 47 48 51 54 53 50 50
52 54 53 54 56 57 59 61 59 62 64 67 68 73 77 76 72 69 68 67 65 63 62 59 56 52 53 47 47 53 56 45 45
59 60 58 59 57 58 60 61 63 63 63 65 65 68 70 77 75 74 72 71 70 66 64 62 58 56 54 55 55 55 52 49 51
62 61 63 66 65 61 61 62 63 64 65 69 66 63 63 67 76 80 78 74 73 71 68 64 59 59 54 58 54 60 59 53 50
68 66 63 66 63 64 64 62 61 64 66 68 67 66 66 67 69 73 79 79 76 74 71 66 64 60 61 61 65 58 62 61 55
75 70 69 71 67 65 63 61 60 60 66 65 67 66 66 65 65 66 73 77 79 79 72 72 72 68 69 68 68 71 69 56 54
79 78 75 72 69 68 65 66 65 64 64 66 63 61 63 61 64 67 68 70 72 72 72 72 75 71 74 75 73 69 62 57 50
87 85 81 79 76 76 72 71 70 71 69 67 67 62 62 65 67 65 65 69 68 71 71 70 68 68 70 70 70 63 64 60 51
94 91 85 82 81 82 77 77 77 78 77 73 71 68 64 70 64 65 74 79 75 72 69 66 69 68 72 71 67 66 55 55 53
92 94 90 88 86 83 84 83 83 82 80 78 74 70 66 66 60 65 67 72 71 69 65 66 66 65 72 68 61 53 48 53 53

GFSFLT1_250_spd_108.txt.gz
Wind_Speed
46 44 42 43 43 43 41 39 38 36 35 31 29 29 29 27 27 27 26 26 26 24 23 24 23 25 23 23 24 25 24 24 28
51 49 48 48 48 46 45 45 43 41 39 39 35 32 31 31 30 30 30 29 30 29 30 28 27 24 27 25 26 26 24 26 28
55 53 52 51 50 50 50 49 47 46 42 42 41 39 36 34 34 34 33 33 32 31 32 32 31 28 26 26 27 30 27 27 31
61 58 58 56 56 57 56 54 53 49 48 47 45 43 42 40 39 37 36 36 34 33 33 34 35 32 31 29 29 31 25 30 31
54 58 60 60 60 60 61 59 57 57 53 51 50 49 47 45 44 43 42 39 38 37 36 36 35 34 36 36 28 30 31 31 30
51 53 55 58 62 64 64 64 61 60 60 58 55 54 53 50 48 49 48 46 42 41 40 40 40 39 38 39 37 28 27 29 28
49 50 50 51 53 60 67 70 70 66 63 60 59 59 57 55 53 52 52 51 49 47 45 44 43 43 43 42 41 35 30 37 39
48 49 51 51 50 51 57 59 66 67 67 66 64 64 65 64 62 60 57 55 55 54 51 51 48 47 46 46 45 43 41 42 43
52 51 54 53 53 54 50 53 56 61 66 70 70 69 68 67 66 65 63 61 59 59 58 57 55 53 53 54 52 48 45 44 46
57 55 57 55 53 54 56 53 50 51 53 58 65 66 69 71 70 70 69 67 65 64 63 62 61 60 59 59 55 48 44 43 48
62 61 60 58 57 57 59 57 55 52 51 53 52 59 64 68 71 73 74 72 72 70 68 67 65 63 62 61 56 51 46 41 45
64 67 65 58 55 56 55 58 56 55 53 53 55 55 55 58 58 62 70 74 78 76 73 72 71 68 64 62 58 55 51 47 49
72 67 64 64 59 58 58 57 58 56 59 57 57 56 57 55 57 57 56 61 69 75 78 76 74 73 68 66 63 57 54 53 54
75 72 72 66 65 59 60 61 60 60 61 60 61 60 61 59 60 61 60 58 57 66 73 77 76 75 74 69 66 62 58 60 62
81 75 79 73 72 71 69 68 67 64 66 66 64 61 60 63 62 61 59 60 61 62 66 71 77 78 76 75 72 62 64 62 67
85 78 81 79 77 75 73 69 69 70 68 64 63 60 60 61 57 58 60 57 60 60 62 65 70 74 76 77 78 71 69 67 67
84 83 84 85 83 79 78 74 72 73 73 71 68 63 66 62 63 62 61 61 59 60 63 60 61 64 68 72 68 63 64 67 61
87 84 87 85 85 83 83 82 80 79 74 69 68 67 65 69 67 65 67 67 61 60 67 67 64 63 60 63 63 65 66 66 62
90 87 88 89 86 87 88 87 87 84 80 78 76 76 74 74 72 70 70 71 69 63 66 71 70 70 65 68 67 67 67 66 62
94 91 89 91 89 91 88 91 92 90 87 84 82 80 80 78 77 76 75 75 74 70 65 67 66 70 71 74 65 67 66 67 67

GFSFLT1_250_spd_111.txt.gz
Wind_Speed
46 45 46 46 43 44 43 42 41 40 38 35 34 34 33 33 32 30 29 27 27 27 28 28 27 26 26 26 26 25 26 26 23
52 52 52 52 50 48 47 45 45 44 43 41 39 38 37 37 36 36 32 32 31 30 30 31 31 31 29 29 28 24 28 30 25
58 56 57 56 54 51 49 50 50 49 47 46 45 43 41 39 39 39 38 37 35 35 34 34 32 32 32 32 31 28 31 32 30
63 62 60 58 58 56 53 52 54 52 52 49 49 47 45 44 44 42 42 42 41 39 39 39 38 36 35 33 34 36 36 28 30
52 52 53 58 61 61 59 52 59 58 58 58 56 52 52 50 47 47 48 47 44 44 43 42 41 40 40 39 36 37 38 35 33
48 48 48 50 53 53 55 58 59 61 64 63 60 57 56 54 55 54 53 52 51 48 48 46 47 44 44 43 42 41 41 41 38
45 42 43 46 50 51 53 53 54 60 64 64 62 61 62 61 60 59 57 56 54 52 51 50 50 51 49 49 46 44 42 42 43
46 46 45 45 44 46 47 49 48 49 55 62 66 69 71 69 65 63 61 60 61 60 59 57 56 55 54 53 53 48 45 45 50
53 51 52 52 49 48 46 47 47 48 48 49 51 59 59 64 66 66 66 64 64 64 64 63 62 61 61 59 57 58 56 55 52
58 56 57 57 56 55 52 49 48 49 50 50 49 48 49 55 60 65 69 70 70 69 69 69 68 68 65 64 63 62 60 57 54
61 60 55 62 60 59 56 55 53 55 56 58 56 51 51 50 49 51 53 57 63 65 68 70 72 74 74 70 67 66 63 61 55
70 65 65 60 58 61 59 58 56 57 57 60 59 57 54 54 49 48 45 48 49 54 55 55 56 65 70 74 73 71 69 65 61
77 74 70 72 67 61 64 64 64 64 60 62 60 56 57 55 55 54 52 52 52 51 53 55 55 53 52 59 70 75 71 67 65
80 81 76 78 79 71 68 66 64 66 62 60 62 58 57 59 56 53 56 56 55 55 58 59 56 53 54 54 58 65 70 70 68
87 85 83 85 87 81 76 72 72 71 66 64 63 61 61 62 60 57 60 58 57 56 56 56 55 54 53 55 58 60 64 68 70
91 91 90 91 94 81 81 81 78 77 74 73 69 68 69 69 66 63 64 61 61 60 60 60 56 56 54 56 56 54 59 64 66
91 92 93 94 95 87 85 84 81 80 81 78 74 73 73 72 73 69 67 69 68 63 61 62 61 60 58 59 57 54 55 58 59
94 94 91 92 94 92 90 86 84 84 84 79 81 80 77 78 76 75 70 72 69 67 66 68 67 66 64 59 61 60 61 60 56
98 98 95 95 99 96 90 89 86 88 88 85 84 87 85 83 81 78 77 76 76 73 73 73 71 69 69 63 63 65 65 62 62
106 105 104 102 102 102 95 91 83 88 91 94 89 91 90 86 85 84 84 82 82 80 78 76 75 74 73 71 69 69 69 69 71

GFSFLT1_250_spd_117.txt.gz
Wind_Speed
47 46 44 42 43 43 42 43 42 41 40 39 40 40 37 37 36 32 32 30 30 32 32 30 30 30 29 29 28 27 27 28 27
50 49 49 48 47 49 48 47 47 46 45 44 44 44 44 41 40 38 38 37 34 34 34 36 35 35 34 34 33 32 31 31 31
51 51 52 53 52 53 53 52 51 51 50 50 48 48 47 45 44 42 41 41 39 38 38 38 38 38 40 41 38 36 36 36 34
49 52 54 54 56 57 56 53 53 55 54 54 55 54 52 51 50 47 45 44 44 44 44 43 42 40 41 42 42 43 42 40 37
43 45 45 50 52 54 58 59 61 62 63 63 59 56 57 56 58 54 52 50 50 52 51 49 49 46 45 45 45 45 46 45 42
43 42 42 41 41 44 46 49 51 54 56 55 53 51 52 54 57 57 57 56 57 56 56 55 52 51 50 48 48 47 47 45 45
51 49 47 46 47 44 39 39 41 45 49 48 49 51 51 52 53 54 55 57 58 58 59 59 58 55 55 59 57 54 52 51 52
58 58 57 54 53 52 50 47 46 43 41 43 43 45 47 50 52 51 51 53 52 49 51 54 57 60 60 60 59 56 55 56 56
66 65 63 62 59 57 56 56 52 49 46 44 45 43 43 45 44 45 47 45 42 39 39 38 39 43 48 50 52 55 57 58 58
73 72 69 67 67 64 60 60 59 56 53 50 50 49 49 48 47 45 44 43 41 43 41 39 38 40 41 42 44 46 47 49 51
81 80 76 74 73 71 67 65 64 62 60 57 53 53 52 51 51 52 50 47 46 44 44 45 41 40 38 36 35 35 38 39 39
85 86 86 82 81 78 75 71 69 65 62 61 59 56 56 53 53 55 54 53 50 49 49 48 44 41 38 38 35 40 40 40 41
92 91 90 89 87 86 82 79 78 76 71 68 69 62 58 57 56 57 57 56 55 55 55 50 48 46 45 41 42 42 40 38 37
99 96 95 93 89 91 88 86 83 83 80 77 76 76 60 64 57 60 58 60 60 59 59 54 52 50 49 48 46 45 44 44 42
106 103 99 99 96 92 91 91 87 91 89 85 84 81 75 85 69 67 64 64 65 63 60 59 62 58 55 54 53 52 52 49 50
108 106 104 103 101 98 98 91 95 95 95 93 92 89 88 88 82 80 75 72 69 67 66 63 65 66 63 60 58 58 56 56 55
100 99 98 99 101 102 103 99 96 96 99 99 99 96 93 96 94 87 85 81 78 75 74 72 71 71 71 67 65 64 64 62 61
92 95 89 93 95 99 103 106 105 98 100 102 102 100 100 103 98 96 90 90 87 84 80 80 77 75 75 75 73 72 69 69 68
82 87 85 81 89 93 99 102 105 108 106 103 103 103 105 105 103 100 101 97 96 90 86 85 83 80 79 81 77 78 77 75 72
74 74 73 86 85 98 100 100 102 104 105 106 107 101 105 108 109 106 104 105 95 97 93 92 88 82 81 83 84 84 81 80 78

GFSFLT1_250_spd_120.txt.gz
Wind_Speed
47 47 45 46 45 44 44 42 40 41 40 41 40 40 39 37 37 38 38 36 34 32 32 32 33 33 32 31 30 31 31 30 30
50 50 50 49 49 47 47 45 45 46 46 46 46 44 43 42 41 41 42 40 39 38 36 36 36 35 36 36 36 36 37 36 34
47 49 51 51 50 51 51 49 50 52 51 50 51 52 50 48 46 44 45 44 43 43 40 40 40 39 38 39 39 39 38 38 38
38 41 46 49 50 51 52 53 53 53 55 53 53 53 53 54 53 51 52 51 49 48 48 47 45 45 45 46 45 44 43 41 41
44 42 40 39 43 49 51 53 53 54 55 57 59 60 61 62 61 61 58 55 53 51 49 47 48 49 49 51 50 49 48 45 44
51 51 49 44 42 42 45 46 46 50 52 51 51 53 56 58 59 55 54 51 53 52 52 54 56 58 57 55 55 54 52 52 51
58 58 57 55 52 47 45 45 42 39 40 40 43 47 49 53 54 53 52 52 51 51 51 50 50 51 52 52 52 51 53 55 57
66 65 64 62 59 56 55 53 51 48 48 47 44 41 43 46 48 48 48 49 50 49 50 48 46 42 37 38 40 43 46 49 51
72 72 71 70 68 64 62 61 60 58 55 53 53 48 46 45 45 44 44 45 44 42 42 41 39 37 37 34 34 35 38 41 41
79 78 78 76 75 72 70 68 67 66 64 60 58 56 51 51 49 50 51 49 47 46 40 40 39 40 38 36 35 36 36 36 35
84 83 84 82 79 77 76 74 73 72 71 69 65 63 59 55 54 53 55 54 51 49 47 45 45 44 40 39 38 35 37 36 35
90 90 89 88 86 82 81 80 78 80 78 75 73 72 67 62 60 57 57 57 55 53 53 51 48 47 46 44 42 40 38 37 38
99 97 93 93 92 89 86 86 84 85 83 79 77 76 75 71 63 58 60 61 60 60 55 57 55 50 49 48 48 43 42 42 41
106 103 101 99 97 95 93 93 93 91 87 85 83 83 82 80 72 69 73 75 67 60 65 64 59 54 53 53 51 51 47 45 46
111 110 107 104 102 101 100 98 99 100 95 88 87 85 86 86 79 67 54 64 72 67 70 68 61 59 57 58 56 55 53 53 52
107 105 105 102 99 98 99 100 102 103 103 96 91 87 87 89 90 81 74 72 83 77 66 65 68 70 64 63 63 62 59 60 60
101 99 98 96 92 91 90 91 94 102 105 101 96 91 91 91 95 95 93 96 93 90 88 88 83 81 77 73 69 70 68 68 68
90 90 88 90 91 92 93 92 92 94 99 97 97 98 100 100 97 99 101 100 99 97 96 94 91 88 85 85 78 76 76 75 75
79 83 81 81 83 85 89 92 92 93 95 94 95 97 100 104 105 105 102 100 104 105 102 104 97 97 95 91 88 84 80 79 79
68 72 74 74 76 80 84 87 92 96 100 100 97 97 98 103 101 103 103 103 101 99 101 109 105 106 101 95 93 88 87 87 83

GFSFLT1_250_spd_123.txt.gz
Wind_Speed
43 43 43 44 44 43 43 42 43 43 43 42 41 41 40 40 40 38 38 38 35 37 36 34 34 34 34 33 33 31 32 31 33
37 42 46 46 47 48 49 49 47 45 46 47 46 45 45 45 46 46 44 42 41 38 37 38 38 38 37 37 37 36 34 35 36
33 33 36 41 47 49 50 52 50 50 49 48 49 50 51 50 50 50 51 49 48 45 45 44 45 44 43 43 43 42 43 43 43
41 40 38 37 36 38 41 48 49 50 52 52 53 52 52 53 54 52 52 52 52 52 51 52 52 50 48 47 46 45 45 46 47
47 47 45 44 43 41 39 39 43 48 49 53 56 57 57 56 56 57 58 58 58 57 56 55 52 52 50 48 48 50 52 54 52
53 54 53 52 50 50 46 43 42 41 44 48 50 52 52 54 55 55 56 55 53 54 55 52 50 49 49 49 50 49 51 51 51
63 62 61 60 59 56 55 53 49 48 46 46 43 42 41 45 48 49 49 50 50 50 49 49 48 47 47 48 48 47 45 42 43
72 72 71 68 67 65 63 60 59 58 54 51 50 48 46 48 49 49 46 45 46 46 46 44 44 44 44 44 43 40 35 33 30
81 81 80 77 75 73 71 68 67 65 64 61 58 57 54 54 54 54 51 47 45 45 43 41 41 42 41 38 36 36 33 31 33
89 88 86 84 82 79 77 75 74 73 71 68 66 66 63 61 58 57 58 54 49 48 48 47 47 45 43 41 38 37 34 34 33
95 94 93 90 88 85 82 80 79 79 77 77 75 73 70 70 67 64 63 60 54 53 52 51 52 50 47 45 45 43 40 39 35
100 98 96 96 95 93 90 87 84 83 83 83 82 77 77 75 74 74 69 65 61 58 57 56 56 53 53 50 50 47 45 45 39
107 105 105 105 103 101 99 96 93 90 87 87 87 85 82 79 78 79 80 71 69 65 59 59 61 59 59 56 54 52 51 49 47
112 111 110 110 107 105 103 103 98 97 94 92 89 88 88 86 83 80 82 78 73 70 69 66 62 64 65 59 59 57 57 53 49
110 107 107 109 109 107 103 98 96 95 98 97 95 93 93 91 91 87 82 80 79 73 74 76 75 72 72 76 64 62 64 58 54
106 107 104 103 105 106 105 102 97 94 93 93 94 95 96 97 96 94 89 84 82 80 86 74 76 81 73 74 71 65 67 65 58
90 91 93 96 97 102 103 104 104 103 98 93 90 92 95 94 95 100 94 88 86 83 88 85 88 83 74 78 76 71 69 68 67
76 78 79 82 83 87 93 95 99 100 102 101 98 93 92 95 96 96 95 92 91 90 89 88 89 91 86 84 85 91 87 84 83
65 66 68 71 70 72 77 81 84 91 96 101 104 102 100 96 94 96 95 92 91 92 92 93 95 95 96 101 101 100 99 95 90
53 53 59 59 59 59 63 70 75 81 85 90 98 104 105 105 101 101 98 95 94 96 98 99 102 103 101 102 105 105 106 101 98

GFSFLT1_250_spd_126.txt.gz
Wind_Speed
31 33 35 39 41 42 43 42 41 41 42 42 43 43 42 42 41 39 38 39 38 37 36 36 35 33 30 32 33 33 32 32 32
33 33 32 33 36 40 43 44 46 46 47 48 48 46 44 47 47 44 43 44 45 44 43 43 42 40 38 37 39 39 37 36 37
36 36 37 36 34 35 37 40 44 46 49 51 51 51 50 48 48 49 48 49 49 48 47 45 44 43 44 47 46 44 42 42 42
44 42 41 40 41 42 41 40 40 40 40 41 46 49 49 49 51 53 53 53 52 52 51 50 50 52 51 49 48 48 48 47 44
49 48 48 47 46 45 46 46 46 44 44 42 41 44 49 50 51 53 55 55 55 55 55 54 53 50 50 51 51 48 47 47 46
58 58 58 56 54 54 53 51 51 49 49 48 46 44 46 47 48 51 52 52 52 54 53 52 52 50 47 47 46 45 45 44 45
71 70 70 68 67 65 64 62 58 56 56 55 52 50 50 48 48 50 48 49 49 49 48 47 46 47 45 42 42 44 44 44 45
75 77 77 77 78 76 74 71 69 67 66 63 60 58 55 54 53 52 50 49 48 48 46 43 41 42 41 42 41 40 41 41 41
84 84 85 85 82 81 81 79 77 76 74 72 69 65 65 63 60 60 57 55 54 52 52 47 44 42 41 39 39 41 39 37 36
91 90 90 91 91 90 89 87 86 83 81 79 76 71 70 70 67 65 65 64 61 57 55 53 51 49 47 46 45 43 41 38 36
96 96 95 96 96 95 93 93 92 90 88 85 82 80 76 73 73 73 72 71 67 65 62 59 58 54 52 50 48 48 45 43 40
102 102 102 102 102 100 99 97 96 95 92 89 87 85 83 80 76 74 77 77 73 72 69 65 63 60 55 53 53 51 50 48 46
107 104 104 105 106 104 102 101 102 101 98 95 93 91 90 88 84 81 80 81 80 77 74 71 69 66 61 59 57 54 55 54 52
107 104 102 102 103 104 105 104 101 99 97 98 98 96 95 95 91 89 87 85 83 83 82 74 70 71 69 67 66 64 60 57 57
95 94 93 96 99 100 101 102 103 101 101 99 96 96 96 95 93 91 91 90 87 86 86 81 75 71 73 73 73 73 68 65 60
80 78 80 84 85 89 91 94 97 100 100 103 99 98 95 92 92 93 92 90 91 89 87 87 83 78 76 77 80 79 75 73 70
67 67 68 69 74 79 80 82 86 88 95 98 101 99 96 93 92 94 94 92 90 91 91 89 89 82 81 80 79 81 82 81 70
74 74 71 68 64 63 66 68 75 79 83 88 94 98 98 101 98 95 95 94 92 90 90 89 89 86 84 85 87 86 85 85 82
75 73 72 69 62 54 54 57 60 65 73 78 85 91 94 100 102 102 101 97 95 92 89 88 90 86 84 85 85 87 83 85 77
66 65 67 63 59 50 46 50 52 54 61 69 77 82 88 94 99 103 103 102 100 100 95 92 91 90 88 88 89 89 89 83 85